Time,TemperatureF,DewpointF,PressureIn,WindDirection,WindDirectionDegrees,WindSpeedMPH,WindSpeedGustMPH,Humidity,HourlyPrecipIn,Conditions,Clouds,dailyrainin,SolarRadiationWatts/m^2,SoftwareType,DateUTC
2013-02-27 00:00:00,33.1,32.1,29.54,North,359,6.6,9.9,96,0.00,,,0.67,0.00,VWS V14.01,2013-02-27 06:00:00,
2013-02-27 00:01:00,33.1,32.1,29.54,North,354,4.4,6.6,96,0.00,,,0.00,0.00,VWS V14.01,2013-02-27 06:01:00,
2013-02-27 00:02:00,33.1,32.1,29.54,NNE,23,4.4,8.8,96,0.00,,,0.00,0.00,VWS V14.01,2013-02-27 06:02:00,
2013-02-27 00:05:00,33.1,32.1,29.54,North,359,4.4,5.5,96,0.00,,,0.00,0.00,VWS V14.01,2013-02-27 06:05:00,
2013-02-27 00:06:00,33.1,32.1,29.54,NNE,25,6.6,8.8,96,0.00,,,0.00,0.00,VWS V14.01,2013-02-27 06:06:00,
2013-02-27 00:07:00,33.1,32.1,29.54,NNE,18,3.3,9.9,96,0.00,,,0.00,0.00,VWS V14.01,2013-02-27 06:07:00,
2013-02-27 00:10:00,33.1,32.1,29.54,North,9,6.6,6.6,96,0.00,,,0.00,0.00,VWS V14.01,2013-02-27 06:10:00,
2013-02-27 00:12:00,33.1,32.1,29.54,NNE,23,3.3,4.4,96,0.00,,,0.00,0.00,VWS V14.01,2013-02-27 06:12:00,
2013-02-27 00:13:00,33.1,32.1,29.54,NNE,15,8.8,8.8,96,0.00,,,0.00,0.00,VWS V14.01,2013-02-27 06:13:00,
2013-02-27 00:15:00,33.1,32.1,29.54,NNW,347,5.5,5.5,96,0.00,,,0.00,0.00,VWS V14.01,2013-02-27 06:15:00,
2013-02-27 00:17:00,33.1,32.1,29.54,North,4,5.5,8.8,96,0.00,,,0.00,0.00,VWS V14.01,2013-02-27 06:17:00,
2013-02-27 00:18:00,33.1,32.1,29.54,NNE,33,3.3,7.7,96,0.00,,,0.00,0.00,VWS V14.01,2013-02-27 06:18:00,
2013-02-27 00:21:00,33.2,32.2,29.54,NNE,14,5.5,7.7,96,0.00,,,0.00,0.00,VWS V14.01,2013-02-27 06:21:00,
2013-02-27 00:22:00,33.1,32.1,29.54,North,359,2.2,2.2,96,0.00,,,0.00,0.00,VWS V14.01,2013-02-27 06:22:00,
2013-02-27 00:23:00,33.1,32.1,29.54,North,359,4.4,7.7,96,0.00,,,0.00,0.00,VWS V14.01,2013-02-27 06:23:00,
2013-02-27 00:24:00,33.1,32.1,29.54,North,354,3.3,7.7,96,0.00,,,0.00,0.00,VWS V14.01,2013-02-27 06:24:00,
2013-02-27 00:26:00,33.2,32.2,29.54,North,4,3.3,6.6,96,0.00,,,0.00,0.00,VWS V14.01,2013-02-27 06:26:00,
2013-02-27 00:27:00,33.1,32.1,29.54,North,4,4.4,4.4,96,0.00,,,0.00,0.00,VWS V14.01,2013-02-27 06:27:00,
2013-02-27 00:28:00,33.2,32.2,29.54,NNW,343,3.3,4.4,96,0.00,,,0.00,0.00,VWS V14.01,2013-02-27 06:28:00,
2013-02-27 00:29:00,33.1,32.1,29.54,NNE,25,5.5,5.5,96,0.00,,,0.00,0.00,VWS V14.01,2013-02-27 06:29:00,
2013-02-27 00:31:00,33.2,32.2,29.54,North,354,1.1,2.2,96,0.00,,,0.00,0.00,VWS V14.01,2013-02-27 06:31:00,
2013-02-27 00:32:00,33.1,32.1,29.54,North,4,7.7,9.9,96,0.00,,,0.00,0.00,VWS V14.01,2013-02-27 06:32:00,
2013-02-27 00:33:00,33.1,32.1,29.54,North,4,3.3,7.7,96,0.00,,,0.00,0.00,VWS V14.01,2013-02-27 06:33:00,
2013-02-27 00:34:00,33.2,32.2,29.54,North,354,4.4,7.7,96,0.00,,,0.00,0.00,VWS V14.01,2013-02-27 06:34:00,
2013-02-27 00:38:00,33.2,32.2,29.55,North,4,2.2,4.4,96,0.00,,,0.00,0.00,VWS V14.01,2013-02-27 06:38:00,
2013-02-27 00:39:00,33.2,32.2,29.55,NNE,13,4.4,7.7,96,0.00,,,0.00,0.00,VWS V14.01,2013-02-27 06:39:00,
2013-02-27 00:44:00,33.2,32.2,29.55,NNW,339,4.4,5.5,96,0.00,,,0.00,0.00,VWS V14.01,2013-02-27 06:44:00,
2013-02-27 00:49:00,33.2,32.2,29.55,North,359,3.3,4.4,96,0.00,,,0.00,0.00,VWS V14.01,2013-02-27 06:49:00,
2013-02-27 00:51:00,33.1,32.1,29.55,North,354,3.3,3.3,96,0.00,,,0.00,0.00,VWS V14.01,2013-02-27 06:51:00,
2013-02-27 00:54:00,33.1,32.1,29.55,North,359,2.2,4.4,96,0.00,,,0.00,0.00,VWS V14.01,2013-02-27 06:54:00,
2013-02-27 00:55:00,33.1,32.1,29.55,North,354,3.3,4.4,96,0.00,,,0.00,0.00,VWS V14.01,2013-02-27 06:55:00,
2013-02-27 00:56:00,33.1,32.1,29.55,North,354,1.1,2.2,96,0.00,,,0.00,0.00,VWS V14.01,2013-02-27 06:56:00,
2013-02-27 00:59:00,33.2,32.2,29.55,North,10,3.3,5.5,96,0.00,,,0.00,0.00,VWS V14.01,2013-02-27 06:59:00,
2013-02-27 01:00:00,33.2,32.2,29.55,NNE,15,3.3,5.5,96,0.00,,,0.00,0.00,VWS V14.01,2013-02-27 07:00:00,
2013-02-27 01:02:00,33.2,32.2,29.55,NNW,347,3.3,3.3,96,0.00,,,0.00,0.00,VWS V14.01,2013-02-27 07:02:00,
2013-02-27 01:06:00,33.2,32.2,29.55,North,354,1.1,4.4,96,0.00,,,0.00,0.00,VWS V14.01,2013-02-27 07:06:00,
2013-02-27 01:07:00,33.1,32.1,29.55,North,354,1.1,1.1,96,0.00,,,0.00,0.00,VWS V14.01,2013-02-27 07:07:00,
2013-02-27 01:11:00,33.1,32.1,29.55,North,4,2.2,4.4,96,0.00,,,0.00,0.00,VWS V14.01,2013-02-27 07:11:00,
2013-02-27 01:12:00,33.1,32.1,29.55,North,359,3.3,4.4,96,0.00,,,0.00,0.00,VWS V14.01,2013-02-27 07:12:00,
2013-02-27 01:13:00,33.1,32.1,29.55,North,4,3.3,3.3,96,0.00,,,0.00,0.00,VWS V14.01,2013-02-27 07:13:00,
2013-02-27 01:17:00,33.1,32.1,29.55,North,359,2.2,2.2,96,0.00,,,0.00,0.00,VWS V14.01,2013-02-27 07:17:00,
2013-02-27 01:18:00,33.1,32.1,29.55,North,4,4.4,4.4,96,0.00,,,0.00,0.00,VWS V14.01,2013-02-27 07:18:00,
2013-02-27 01:22:00,33.1,32.1,29.55,North,4,4.4,6.6,96,0.00,,,0.00,0.00,VWS V14.01,2013-02-27 07:22:00,
2013-02-27 01:23:00,33.1,32.1,29.55,North,354,2.2,5.5,96,0.00,,,0.00,0.00,VWS V14.01,2013-02-27 07:23:00,
2013-02-27 01:24:00,33.1,32.1,29.55,North,354,2.2,3.3,96,0.00,,,0.00,0.00,VWS V14.01,2013-02-27 07:24:00,
2013-02-27 01:27:00,33.1,32.1,29.55,North,359,3.3,5.5,96,0.00,,,0.00,0.00,VWS V14.01,2013-02-27 07:27:00,
2013-02-27 01:28:00,33.1,32.1,29.55,North,354,3.3,3.3,96,0.00,,,0.00,0.00,VWS V14.01,2013-02-27 07:28:00,
2013-02-27 01:29:00,33.1,32.1,29.55,NNW,347,2.2,4.4,96,0.00,,,0.00,0.00,VWS V14.01,2013-02-27 07:29:00,
2013-02-27 01:30:00,33.1,32.1,29.55,North,354,3.3,4.4,96,0.00,,,0.00,0.00,VWS V14.01,2013-02-27 07:30:00,
2013-02-27 01:32:00,33.1,32.1,29.55,North,354,1.1,1.1,96,0.00,,,0.00,0.00,VWS V14.01,2013-02-27 07:32:00,
2013-02-27 01:34:00,33.1,32.1,29.55,North,354,2.2,3.3,96,0.00,,,0.00,0.00,VWS V14.01,2013-02-27 07:34:00,
2013-02-27 01:35:00,33.1,32.1,29.55,North,354,4.4,5.5,96,0.00,,,0.00,0.00,VWS V14.01,2013-02-27 07:35:00,
2013-02-27 01:38:00,33.1,32.1,29.55,North,349,2.2,4.4,96,0.00,,,0.00,0.00,VWS V14.01,2013-02-27 07:38:00,
2013-02-27 01:39:00,33.1,32.1,29.55,North,349,1.1,2.2,96,0.00,,,0.00,0.00,VWS V14.01,2013-02-27 07:39:00,
2013-02-27 01:40:00,33.1,32.1,29.55,North,354,2.2,4.4,96,0.00,,,0.00,0.00,VWS V14.01,2013-02-27 07:40:00,
2013-02-27 01:43:00,33.1,32.1,29.55,North,354,1.1,2.2,96,0.00,,,0.00,0.00,VWS V14.01,2013-02-27 07:43:00,
2013-02-27 01:44:00,33.1,32.1,29.55,North,354,3.3,4.4,96,0.00,,,0.00,0.00,VWS V14.01,2013-02-27 07:44:00,
2013-02-27 01:45:00,33.1,32.1,29.55,North,354,4.4,4.4,96,0.00,,,0.00,0.00,VWS V14.01,2013-02-27 07:45:00,
2013-02-27 01:49:00,33.1,32.1,29.55,North,4,3.3,6.6,96,0.00,,,0.00,0.00,VWS V14.01,2013-02-27 07:49:00,
2013-02-27 01:50:00,33.1,32.1,29.55,North,4,4.4,4.4,96,0.00,,,0.00,0.00,VWS V14.01,2013-02-27 07:50:00,
2013-02-27 01:51:00,33.1,32.1,29.55,North,359,3.3,3.3,96,0.00,,,0.00,0.00,VWS V14.01,2013-02-27 07:51:00,
2013-02-27 01:54:00,33.1,32.1,29.55,North,349,3.3,3.3,96,0.00,,,0.00,0.00,VWS V14.01,2013-02-27 07:54:00,
2013-02-27 01:55:00,33.1,32.1,29.55,North,349,3.3,3.3,96,0.00,,,0.00,0.00,VWS V14.01,2013-02-27 07:55:00,
2013-02-27 01:56:00,33.1,32.1,29.55,NNW,339,2.2,5.5,96,0.00,,,0.00,0.00,VWS V14.01,2013-02-27 07:56:00,
2013-02-27 01:59:00,33.1,32.1,29.55,NNW,347,2.2,4.4,96,0.00,,,0.00,0.00,VWS V14.01,2013-02-27 07:59:00,
2013-02-27 02:01:00,33.1,32.1,29.55,NW,326,4.4,4.4,96,0.00,,,0.00,0.00,VWS V14.01,2013-02-27 08:01:00,
2013-02-27 02:04:00,33.1,32.1,29.55,NNW,331,3.3,3.3,96,0.00,,,0.00,0.00,VWS V14.01,2013-02-27 08:04:00,
2013-02-27 02:05:00,33.1,32.1,29.55,NNW,332,2.2,3.3,96,0.00,,,0.00,0.00,VWS V14.01,2013-02-27 08:05:00,
2013-02-27 02:06:00,33.1,32.1,29.55,NNW,339,4.4,4.4,96,0.00,,,0.00,0.00,VWS V14.01,2013-02-27 08:06:00,
2013-02-27 02:07:00,33.1,32.1,29.55,NNW,341,4.4,6.6,96,0.00,,,0.00,0.00,VWS V14.01,2013-02-27 08:07:00,
2013-02-27 02:10:00,33.1,32.1,29.55,NNW,337,2.2,3.3,96,0.00,,,0.00,0.00,VWS V14.01,2013-02-27 08:10:00,
2013-02-27 02:11:00,33.1,32.1,29.55,NNW,337,2.2,4.4,96,0.00,,,0.00,0.00,VWS V14.01,2013-02-27 08:11:00,
2013-02-27 02:12:00,33.1,32.1,29.55,NNW,343,4.4,4.4,96,0.00,,,0.00,0.00,VWS V14.01,2013-02-27 08:12:00,
2013-02-27 02:15:00,33.1,32.1,29.55,NNW,333,2.2,2.2,96,0.00,,,0.00,0.00,VWS V14.01,2013-02-27 08:15:00,
2013-02-27 02:16:00,33.1,32.1,29.55,NNW,333,1.1,2.2,96,0.00,,,0.00,0.00,VWS V14.01,2013-02-27 08:16:00,
2013-02-27 02:17:00,33.1,32.1,29.55,NNW,345,2.2,4.4,96,0.00,,,0.00,0.00,VWS V14.01,2013-02-27 08:17:00,
2013-02-27 02:19:00,33.1,32.1,29.55,NNW,330,4.4,5.5,96,0.00,,,0.00,0.00,VWS V14.01,2013-02-27 08:19:00,
2013-02-27 02:20:00,33.1,32.1,29.55,NNW,345,1.1,5.5,96,0.00,,,0.00,0.00,VWS V14.01,2013-02-27 08:20:00,
2013-02-27 02:21:00,33.1,32.1,29.55,NNW,345,2.2,2.2,96,0.00,,,0.00,0.00,VWS V14.01,2013-02-27 08:21:00,
2013-02-27 02:22:00,33.1,32.1,29.55,NNW,347,2.2,4.4,96,0.00,,,0.00,0.00,VWS V14.01,2013-02-27 08:22:00,
2013-02-27 02:24:00,33.1,32.1,29.55,NNW,341,2.2,3.3,96,0.00,,,0.00,0.00,VWS V14.01,2013-02-27 08:24:00,
2013-02-27 02:26:00,33.1,32.1,29.55,NNW,341,2.2,3.3,96,0.00,,,0.00,0.00,VWS V14.01,2013-02-27 08:26:00,
2013-02-27 02:27:00,33.1,32.1,29.55,NNW,332,3.3,3.3,96,0.00,,,0.00,0.00,VWS V14.01,2013-02-27 08:27:00,
2013-02-27 02:29:00,33.1,32.1,29.55,NNW,335,5.5,5.5,96,0.00,,,0.00,0.00,VWS V14.01,2013-02-27 08:29:00,
2013-02-27 02:31:00,33.1,32.1,29.55,NNW,341,2.2,3.3,96,0.00,,,0.00,0.00,VWS V14.01,2013-02-27 08:31:00,
2013-02-27 02:32:00,33.1,32.1,29.55,NNW,343,3.3,3.3,96,0.00,,,0.00,0.00,VWS V14.01,2013-02-27 08:32:00,
2013-02-27 02:33:00,33.1,32.1,29.55,NNW,345,3.3,6.6,96,0.00,,,0.00,0.00,VWS V14.01,2013-02-27 08:33:00,
2013-02-27 02:35:00,33.1,32.1,29.55,NNW,335,2.2,6.6,96,0.00,,,0.00,0.00,VWS V14.01,2013-02-27 08:35:00,
2013-02-27 02:36:00,33.2,32.2,29.55,NW,320,3.3,3.3,96,0.00,,,0.00,0.00,VWS V14.01,2013-02-27 08:36:00,
2013-02-27 02:37:00,33.2,32.2,29.55,NNW,340,2.2,3.3,96,0.00,,,0.00,0.00,VWS V14.01,2013-02-27 08:37:00,
2013-02-27 02:39:00,33.2,32.2,29.55,NNW,340,0.0,3.3,96,0.00,,,0.00,0.00,VWS V14.01,2013-02-27 08:39:00,
2013-02-27 02:40:00,33.2,32.2,29.55,NW,323,2.2,4.4,96,0.00,,,0.00,0.00,VWS V14.01,2013-02-27 08:40:00,
2013-02-27 02:41:00,33.2,32.2,29.55,NNW,341,1.1,4.4,96,0.00,,,0.00,0.00,VWS V14.01,2013-02-27 08:41:00,
2013-02-27 02:44:00,33.2,32.2,29.55,NNW,341,2.2,2.2,96,0.00,,,0.00,0.00,VWS V14.01,2013-02-27 08:44:00,
2013-02-27 02:46:00,33.2,32.2,29.55,NNW,330,5.5,5.5,96,0.00,,,0.00,0.00,VWS V14.01,2013-02-27 08:46:00,
2013-02-27 02:47:00,33.2,32.2,29.55,NNW,332,2.2,5.5,96,0.00,,,0.00,0.00,VWS V14.01,2013-02-27 08:47:00,
2013-02-27 02:49:00,33.2,32.2,29.55,NW,318,3.3,3.3,96,0.00,,,0.00,0.00,VWS V14.01,2013-02-27 08:49:00,
2013-02-27 02:51:00,33.2,32.2,29.55,NW,315,4.4,5.5,96,0.00,,,0.00,0.00,VWS V14.01,2013-02-27 08:51:00,
2013-02-27 02:52:00,33.2,32.2,29.55,NW,315,2.2,2.2,96,0.00,,,0.00,0.00,VWS V14.01,2013-02-27 08:52:00,
2013-02-27 02:54:00,33.2,32.2,29.55,NW,315,3.3,4.4,96,0.00,,,0.00,0.00,VWS V14.01,2013-02-27 08:54:00,
2013-02-27 02:55:00,33.2,32.2,29.55,NW,315,3.3,4.4,96,0.00,,,0.00,0.00,VWS V14.01,2013-02-27 08:55:00,
2013-02-27 02:56:00,33.2,32.2,29.55,NW,315,2.2,3.3,96,0.00,,,0.00,0.00,VWS V14.01,2013-02-27 08:56:00,
2013-02-27 02:59:00,33.2,32.2,29.55,NW,314,3.3,4.4,96,0.00,,,0.00,0.00,VWS V14.01,2013-02-27 08:59:00,
2013-02-27 03:00:00,33.2,32.2,29.55,NW,306,3.3,5.5,96,0.00,,,0.00,0.00,VWS V14.01,2013-02-27 09:00:00,
2013-02-27 03:01:00,33.2,32.2,29.55,NW,314,3.3,4.4,96,0.00,,,0.00,0.00,VWS V14.01,2013-02-27 09:01:00,
2013-02-27 03:04:00,33.2,32.2,29.55,WNW,298,4.4,4.4,96,0.00,,,0.00,0.00,VWS V14.01,2013-02-27 09:04:00,
2013-02-27 03:05:00,33.2,32.2,29.55,NW,324,2.2,4.4,96,0.00,,,0.00,0.00,VWS V14.01,2013-02-27 09:05:00,
2013-02-27 03:06:00,33.2,32.2,29.55,NW,320,2.2,2.2,96,0.00,,,0.00,0.00,VWS V14.01,2013-02-27 09:06:00,
2013-02-27 03:10:00,33.1,32.1,29.55,NW,321,3.3,4.4,96,0.00,,,0.00,0.00,VWS V14.01,2013-02-27 09:10:00,
2013-02-27 03:11:00,33.1,32.1,29.55,NNW,330,6.6,6.6,96,0.00,,,0.00,0.00,VWS V14.01,2013-02-27 09:11:00,
2013-02-27 03:12:00,33.1,32.1,29.55,NW,320,4.4,6.6,96,0.00,,,0.00,0.00,VWS V14.01,2013-02-27 09:12:00,
2013-02-27 03:15:00,33.1,32.1,29.54,NNW,328,3.3,4.4,96,0.00,,,0.00,0.00,VWS V14.01,2013-02-27 09:15:00,
2013-02-27 03:16:00,33.1,32.1,29.54,NW,320,3.3,4.4,96,0.00,,,0.00,0.00,VWS V14.01,2013-02-27 09:16:00,
2013-02-27 03:17:00,33.1,32.1,29.54,NW,321,4.4,6.6,96,0.00,,,0.00,0.00,VWS V14.01,2013-02-27 09:17:00,
2013-02-27 03:20:00,33.1,32.1,29.54,NNW,330,6.6,6.6,96,0.00,,,0.00,0.00,VWS V14.01,2013-02-27 09:20:00,
2013-02-27 03:21:00,33.1,32.1,29.54,NNW,335,5.5,6.6,96,0.00,,,0.00,0.00,VWS V14.01,2013-02-27 09:21:00,
2013-02-27 03:22:00,33.1,32.1,29.54,NW,324,6.6,6.6,96,0.00,,,0.00,0.00,VWS V14.01,2013-02-27 09:22:00,
2013-02-27 03:23:00,33.1,32.1,29.54,NNW,334,2.2,6.6,96,0.00,,,0.00,0.00,VWS V14.01,2013-02-27 09:23:00,
2013-02-27 03:25:00,33.1,32.1,29.54,NW,326,7.7,7.7,96,0.00,,,0.00,0.00,VWS V14.01,2013-02-27 09:25:00,
2013-02-27 03:26:00,33.1,32.1,29.54,NNW,339,3.3,7.7,96,0.00,,,0.00,0.00,VWS V14.01,2013-02-27 09:26:00,
2013-02-27 03:28:00,33.0,32.0,29.54,NW,320,3.3,4.4,96,0.00,,,0.00,0.00,VWS V14.01,2013-02-27 09:28:00,
2013-02-27 03:31:00,33.0,32.0,29.54,NW,322,3.3,3.3,96,0.00,,,0.00,0.00,VWS V14.01,2013-02-27 09:31:00,
2013-02-27 03:32:00,33.0,32.0,29.54,WNW,299,3.3,6.6,96,0.00,,,0.00,0.00,VWS V14.01,2013-02-27 09:32:00,
2013-02-27 03:33:00,33.1,32.1,29.54,NW,318,5.5,6.6,96,0.00,,,0.00,0.00,VWS V14.01,2013-02-27 09:33:00,
2013-02-27 03:34:00,33.1,32.1,29.54,NW,318,4.4,6.6,96,0.00,,,0.00,0.00,VWS V14.01,2013-02-27 09:34:00,
2013-02-27 03:36:00,33.1,32.3,29.54,NW,305,4.4,5.5,97,0.00,,,0.00,0.00,VWS V14.01,2013-02-27 09:36:00,
2013-02-27 03:37:00,33.1,32.3,29.54,WNW,293,3.3,4.4,97,0.00,,,0.00,0.00,VWS V14.01,2013-02-27 09:37:00,
2013-02-27 03:39:00,33.1,32.3,29.54,WNW,297,3.3,4.4,97,0.00,,,0.00,0.00,VWS V14.01,2013-02-27 09:39:00,
2013-02-27 03:41:00,33.1,32.3,29.55,NW,305,5.5,5.5,97,0.00,,,0.00,0.00,VWS V14.01,2013-02-27 09:41:00,
2013-02-27 03:43:00,33.1,32.3,29.54,NW,305,3.3,5.5,97,0.00,,,0.00,0.00,VWS V14.01,2013-02-27 09:43:00,
2013-02-27 03:45:00,33.1,32.3,29.55,NW,306,4.4,5.5,97,0.00,,,0.00,0.00,VWS V14.01,2013-02-27 09:45:00,
2013-02-27 03:47:00,33.1,32.3,29.55,WNW,286,4.4,7.7,97,0.00,,,0.00,0.00,VWS V14.01,2013-02-27 09:47:00,
2013-02-27 03:48:00,33.2,32.4,29.55,WNW,295,4.4,5.5,97,0.00,,,0.00,0.00,VWS V14.01,2013-02-27 09:48:00,
2013-02-27 03:50:00,33.2,32.4,29.55,WNW,299,4.4,5.5,97,0.00,,,0.00,0.00,VWS V14.01,2013-02-27 09:50:00,
2013-02-27 03:52:00,33.2,32.4,29.55,WNW,300,2.2,4.4,97,0.00,,,0.00,0.00,VWS V14.01,2013-02-27 09:52:00,
2013-02-27 03:55:00,33.2,32.4,29.55,WNW,288,2.2,4.4,97,0.00,,,0.00,0.00,VWS V14.01,2013-02-27 09:55:00,
2013-02-27 03:56:00,33.2,32.4,29.55,NW,308,2.2,6.6,97,0.00,,,0.00,0.00,VWS V14.01,2013-02-27 09:56:00,
2013-02-27 03:58:00,33.1,32.3,29.55,WNW,301,4.4,4.4,97,0.00,,,0.00,0.00,VWS V14.01,2013-02-27 09:58:00,
2013-02-27 04:00:00,33.1,32.3,29.55,WNW,293,5.5,6.6,97,0.00,,,0.00,0.00,VWS V14.01,2013-02-27 10:00:00,
2013-02-27 04:01:00,33.2,32.4,29.55,WNW,289,4.4,5.5,97,0.00,,,0.00,0.00,VWS V14.01,2013-02-27 10:01:00,
2013-02-27 04:02:00,33.1,32.3,29.55,WNW,295,3.3,5.5,97,0.00,,,0.00,0.00,VWS V14.01,2013-02-27 10:02:00,
2013-02-27 04:03:00,33.1,32.3,29.55,WNW,299,3.3,3.3,97,0.00,,,0.00,0.00,VWS V14.01,2013-02-27 10:03:00,
2013-02-27 04:05:00,33.1,32.3,29.55,WNW,293,4.4,7.7,97,0.00,,,0.00,0.00,VWS V14.01,2013-02-27 10:05:00,
2013-02-27 04:07:00,33.1,32.3,29.56,West,280,2.2,3.3,97,0.00,,,0.00,0.00,VWS V14.01,2013-02-27 10:07:00,
2013-02-27 04:08:00,33.1,32.3,29.56,WNW,292,5.5,5.5,97,0.00,,,0.00,0.00,VWS V14.01,2013-02-27 10:08:00,
2013-02-27 04:10:00,33.1,32.3,29.55,WNW,291,4.4,4.4,97,0.00,,,0.00,0.00,VWS V14.01,2013-02-27 10:10:00,
2013-02-27 04:12:00,33.1,32.3,29.56,WNW,301,3.3,4.4,97,0.00,,,0.00,0.00,VWS V14.01,2013-02-27 10:12:00,
2013-02-27 04:13:00,33.1,32.3,29.56,WNW,293,3.3,4.4,97,0.00,,,0.00,0.00,VWS V14.01,2013-02-27 10:13:00,
2013-02-27 04:14:00,33.1,32.3,29.56,WNW,289,2.2,5.5,97,0.00,,,0.00,0.00,VWS V14.01,2013-02-27 10:14:00,
2013-02-27 04:16:00,33.1,32.3,29.55,WNW,287,2.2,5.5,97,0.00,,,0.00,0.00,VWS V14.01,2013-02-27 10:16:00,
2013-02-27 04:17:00,33.1,32.3,29.55,WNW,303,5.5,6.6,97,0.00,,,0.00,0.00,VWS V14.01,2013-02-27 10:17:00,
2013-02-27 04:18:00,33.1,32.3,29.55,WNW,289,3.3,5.5,97,0.00,,,0.00,0.00,VWS V14.01,2013-02-27 10:18:00,
2013-02-27 04:19:00,33.1,32.3,29.55,WNW,295,2.2,2.2,97,0.00,,,0.00,0.00,VWS V14.01,2013-02-27 10:19:00,
2013-02-27 04:21:00,33.1,32.3,29.55,WNW,289,4.4,5.5,97,0.00,,,0.00,0.00,VWS V14.01,2013-02-27 10:21:00,
2013-02-27 04:23:00,33.1,32.3,29.55,WNW,288,5.5,5.5,97,0.00,,,0.00,0.00,VWS V14.01,2013-02-27 10:23:00,
2013-02-27 04:25:00,33.1,32.3,29.56,WNW,299,1.1,3.3,97,0.00,,,0.00,0.00,VWS V14.01,2013-02-27 10:25:00,
2013-02-27 04:26:00,33.1,32.3,29.56,WNW,297,2.2,4.4,97,0.00,,,0.00,0.00,VWS V14.01,2013-02-27 10:26:00,
2013-02-27 04:28:00,33.1,32.3,29.56,WNW,296,3.3,3.3,97,0.00,,,0.00,0.00,VWS V14.01,2013-02-27 10:28:00,
2013-02-27 04:29:00,33.1,32.3,29.56,WNW,297,4.4,5.5,97,0.00,,,0.00,0.00,VWS V14.01,2013-02-27 10:29:00,
2013-02-27 04:30:00,33.1,32.3,29.56,WNW,297,3.3,4.4,97,0.00,,,0.00,0.00,VWS V14.01,2013-02-27 10:30:00,
2013-02-27 04:31:00,33.1,32.3,29.56,NW,315,2.2,4.4,97,0.00,,,0.00,0.00,VWS V14.01,2013-02-27 10:31:00,
2013-02-27 04:33:00,33.1,32.3,29.56,WNW,296,4.4,5.5,97,0.00,,,0.00,0.00,VWS V14.01,2013-02-27 10:33:00,
2013-02-27 04:34:00,33.1,32.3,29.56,WNW,293,3.3,5.5,97,0.00,,,0.00,0.00,VWS V14.01,2013-02-27 10:34:00,
2013-02-27 04:36:00,33.1,32.3,29.56,WNW,299,3.3,4.4,97,0.00,,,0.00,0.00,VWS V14.01,2013-02-27 10:36:00,
2013-02-27 04:37:00,33.1,32.3,29.56,WNW,289,4.4,4.4,97,0.00,,,0.00,0.00,VWS V14.01,2013-02-27 10:37:00,
2013-02-27 04:39:00,33.1,32.3,29.56,WNW,297,3.3,5.5,97,0.00,,,0.00,0.00,VWS V14.01,2013-02-27 10:39:00,
2013-02-27 04:42:00,33.1,32.3,29.56,WNW,300,6.6,6.6,97,0.00,,,0.00,0.00,VWS V14.01,2013-02-27 10:42:00,
2013-02-27 04:44:00,33.1,32.3,29.57,WNW,300,5.5,5.5,97,0.00,,,0.00,0.00,VWS V14.01,2013-02-27 10:44:00,
2013-02-27 04:45:00,33.1,32.3,29.57,NW,311,4.4,6.6,97,0.00,,,0.00,0.00,VWS V14.01,2013-02-27 10:45:00,
2013-02-27 04:47:00,33.1,32.3,29.57,WNW,291,4.4,4.4,97,0.00,,,0.00,0.00,VWS V14.01,2013-02-27 10:47:00,
2013-02-27 04:49:00,33.1,32.3,29.57,WNW,283,4.4,4.4,97,0.00,,,0.00,0.00,VWS V14.01,2013-02-27 10:49:00,
2013-02-27 04:50:00,33.1,32.3,29.57,WNW,295,5.5,6.6,97,0.00,,,0.00,0.00,VWS V14.01,2013-02-27 10:50:00,
2013-02-27 04:53:00,33.0,32.2,29.57,WNW,288,2.2,6.6,97,0.00,,,0.00,0.00,VWS V14.01,2013-02-27 10:53:00,
2013-02-27 04:54:00,33.0,32.2,29.57,WNW,298,4.4,5.5,97,0.00,,,0.00,0.00,VWS V14.01,2013-02-27 10:54:00,
2013-02-27 04:55:00,33.0,32.0,29.57,West,280,3.3,4.4,96,0.00,,,0.00,0.00,VWS V14.01,2013-02-27 10:55:00,
2013-02-27 04:56:00,33.0,32.2,29.57,West,277,4.4,5.5,97,0.00,,,0.00,0.00,VWS V14.01,2013-02-27 10:56:00,
2013-02-27 04:58:00,33.1,32.3,29.57,West,280,5.5,5.5,97,0.00,,,0.00,0.00,VWS V14.01,2013-02-27 10:58:00,
2013-02-27 05:01:00,33.0,32.2,29.57,WNW,302,3.3,6.6,97,0.00,,,0.00,0.00,VWS V14.01,2013-02-27 11:01:00,
2013-02-27 05:02:00,33.1,32.3,29.58,NW,308,4.4,6.6,97,0.00,,,0.00,0.00,VWS V14.01,2013-02-27 11:02:00,
2013-02-27 05:04:00,33.1,32.3,29.58,WNW,298,4.4,4.4,97,0.00,,,0.00,0.00,VWS V14.01,2013-02-27 11:04:00,
2013-02-27 05:06:00,33.1,32.3,29.57,NW,308,3.3,5.5,97,0.00,,,0.00,0.00,VWS V14.01,2013-02-27 11:06:00,
2013-02-27 05:07:00,33.1,32.3,29.58,WNW,291,5.5,6.6,97,0.00,,,0.00,0.00,VWS V14.01,2013-02-27 11:07:00,
2013-02-27 05:09:00,33.0,32.2,29.58,WNW,292,4.4,4.4,97,0.00,,,0.00,0.00,VWS V14.01,2013-02-27 11:09:00,
2013-02-27 05:10:00,33.0,32.2,29.58,WNW,287,4.4,6.6,97,0.00,,,0.00,0.00,VWS V14.01,2013-02-27 11:10:00,
2013-02-27 05:12:00,33.0,32.2,29.58,WNW,286,4.4,4.4,97,0.00,,,0.00,0.00,VWS V14.01,2013-02-27 11:12:00,
2013-02-27 05:13:00,33.0,32.2,29.58,WNW,284,5.5,6.6,97,0.00,,,0.00,0.00,VWS V14.01,2013-02-27 11:13:00,
2013-02-27 05:15:00,33.0,32.2,29.58,WNW,301,6.6,6.6,97,0.00,,,0.00,0.00,VWS V14.01,2013-02-27 11:15:00,
2013-02-27 05:16:00,33.0,32.2,29.58,WNW,292,5.5,6.6,97,0.00,,,0.00,0.00,VWS V14.01,2013-02-27 11:16:00,
2013-02-27 05:17:00,33.0,32.0,29.58,WNW,302,5.5,5.5,96,0.00,,,0.00,0.00,VWS V14.01,2013-02-27 11:17:00,
2013-02-27 05:19:00,33.1,32.3,29.58,WNW,290,3.3,4.4,97,0.00,,,0.00,0.00,VWS V14.01,2013-02-27 11:19:00,
2013-02-27 05:21:00,33.1,32.3,29.58,WNW,292,2.2,3.3,97,0.00,,,0.00,0.00,VWS V14.01,2013-02-27 11:21:00,
2013-02-27 05:22:00,33.0,32.2,29.58,WNW,294,3.3,3.3,97,0.00,,,0.00,0.00,VWS V14.01,2013-02-27 11:22:00,
2013-02-27 05:23:00,33.1,32.3,29.58,NW,307,4.4,4.4,97,0.00,,,0.00,0.00,VWS V14.01,2013-02-27 11:23:00,
2013-02-27 05:24:00,33.1,32.3,29.58,NW,312,2.2,4.4,97,0.00,,,0.00,0.00,VWS V14.01,2013-02-27 11:24:00,
2013-02-27 05:26:00,33.1,32.3,29.58,WNW,295,3.3,6.6,97,0.00,,,0.00,0.00,VWS V14.01,2013-02-27 11:26:00,
2013-02-27 05:28:00,33.1,32.1,29.58,WNW,300,3.3,6.6,96,0.00,,,0.00,0.00,VWS V14.01,2013-02-27 11:28:00,
2013-02-27 05:30:00,33.1,32.1,29.58,WNW,294,2.2,2.2,96,0.00,,,0.00,0.00,VWS V14.01,2013-02-27 11:30:00,
2013-02-27 05:31:00,33.1,32.3,29.58,WNW,294,3.3,3.3,97,0.00,,,0.00,0.00,VWS V14.01,2013-02-27 11:31:00,
2013-02-27 05:33:00,33.1,32.3,29.58,West,272,3.3,4.4,97,0.00,,,0.00,0.00,VWS V14.01,2013-02-27 11:33:00,
2013-02-27 05:35:00,33.1,32.1,29.58,WNW,297,3.3,5.5,96,0.00,,,0.00,0.00,VWS V14.01,2013-02-27 11:35:00,
2013-02-27 05:36:00,33.1,32.1,29.58,WNW,294,1.1,4.4,96,0.00,,,0.00,0.00,VWS V14.01,2013-02-27 11:36:00,
2013-02-27 05:37:00,33.1,32.3,29.58,West,273,5.5,5.5,97,0.00,,,0.00,0.00,VWS V14.01,2013-02-27 11:37:00,
2013-02-27 05:38:00,33.1,32.1,29.58,WNW,284,4.4,5.5,96,0.00,,,0.00,0.00,VWS V14.01,2013-02-27 11:38:00,
2013-02-27 05:41:00,33.1,32.1,29.58,West,274,6.6,6.6,96,0.00,,,0.00,0.00,VWS V14.01,2013-02-27 11:41:00,
2013-02-27 05:43:00,33.1,32.1,29.58,NW,309,2.2,6.6,96,0.00,,,0.00,0.00,VWS V14.01,2013-02-27 11:43:00,
2013-02-27 05:46:00,33.1,32.1,29.58,WNW,295,4.4,4.4,96,0.00,,,0.00,0.00,VWS V14.01,2013-02-27 11:46:00,
2013-02-27 05:49:00,33.1,32.1,29.58,WNW,283,5.5,5.5,96,0.00,,,0.00,0.00,VWS V14.01,2013-02-27 11:49:00,
2013-02-27 05:51:00,33.1,32.1,29.58,WNW,302,4.4,4.4,96,0.00,,,0.00,0.00,VWS V14.01,2013-02-27 11:51:00,
2013-02-27 05:52:00,33.1,32.1,29.58,WNW,302,3.3,4.4,96,0.00,,,0.00,0.00,VWS V14.01,2013-02-27 11:52:00,
2013-02-27 05:54:00,33.1,32.1,29.58,WNW,295,4.4,5.5,96,0.00,,,0.00,0.00,VWS V14.01,2013-02-27 11:54:00,
2013-02-27 05:57:00,33.1,32.1,29.59,WNW,293,2.2,4.4,96,0.00,,,0.00,0.00,VWS V14.01,2013-02-27 11:57:00,
2013-02-27 05:58:00,33.0,32.0,29.59,WNW,297,5.5,5.5,96,0.00,,,0.00,0.00,VWS V14.01,2013-02-27 11:58:00,
2013-02-27 05:59:00,33.1,32.1,29.59,West,281,3.3,6.6,96,0.00,,,0.00,0.00,VWS V14.01,2013-02-27 11:59:00,
2013-02-27 06:00:00,33.1,32.1,29.59,WNW,301,3.3,3.3,96,0.00,,,0.00,0.00,VWS V14.01,2013-02-27 12:00:00,
2013-02-27 06:02:00,33.1,32.1,29.59,West,270,3.3,3.3,96,0.00,,,0.00,0.00,VWS V14.01,2013-02-27 12:02:00,
2013-02-27 06:03:00,33.1,32.1,29.59,West,270,5.5,5.5,96,0.00,,,0.00,0.00,VWS V14.01,2013-02-27 12:03:00,
2013-02-27 06:04:00,33.0,32.0,29.59,West,272,4.4,5.5,96,0.00,,,0.00,0.00,VWS V14.01,2013-02-27 12:04:00,
2013-02-27 06:05:00,33.1,32.1,29.59,West,272,3.3,5.5,96,0.00,,,0.00,0.00,VWS V14.01,2013-02-27 12:05:00,
2013-02-27 06:07:00,33.1,32.1,29.59,WNW,285,3.3,3.3,96,0.00,,,0.00,0.00,VWS V14.01,2013-02-27 12:07:00,
2013-02-27 06:08:00,33.1,32.1,29.59,WNW,297,3.3,5.5,96,0.00,,,0.00,0.00,VWS V14.01,2013-02-27 12:08:00,
2013-02-27 06:10:00,33.1,32.1,29.59,WNW,282,2.2,4.4,96,0.00,,,0.00,0.00,VWS V14.01,2013-02-27 12:10:00,
2013-02-27 06:11:00,33.1,32.1,29.59,NW,312,4.4,5.5,96,0.00,,,0.00,0.00,VWS V14.01,2013-02-27 12:11:00,
2013-02-27 06:13:00,33.1,32.1,29.59,WNW,300,4.4,4.4,96,0.00,,,0.00,0.00,VWS V14.01,2013-02-27 12:13:00,
2013-02-27 06:14:00,33.1,32.1,29.59,WNW,298,6.6,6.6,96,0.00,,,0.00,0.00,VWS V14.01,2013-02-27 12:14:00,
2013-02-27 06:15:00,33.1,32.1,29.59,WNW,287,5.5,5.5,96,0.00,,,0.00,0.00,VWS V14.01,2013-02-27 12:15:00,
2013-02-27 06:16:00,33.1,32.1,29.59,WNW,302,5.5,6.6,96,0.00,,,0.00,0.00,VWS V14.01,2013-02-27 12:16:00,
2013-02-27 06:19:00,33.0,32.0,29.59,WNW,300,6.6,8.8,96,0.00,,,0.00,0.00,VWS V14.01,2013-02-27 12:19:00,
2013-02-27 06:21:00,33.0,32.0,29.58,WNW,290,6.6,8.8,96,0.00,,,0.00,0.00,VWS V14.01,2013-02-27 12:21:00,
2013-02-27 06:24:00,33.0,32.0,29.58,West,274,4.4,5.5,96,0.00,,,0.00,0.00,VWS V14.01,2013-02-27 12:24:00,
2013-02-27 06:26:00,33.1,32.1,29.59,WNW,287,5.5,6.6,96,0.00,,,0.00,0.00,VWS V14.01,2013-02-27 12:26:00,
2013-02-27 06:29:00,33.0,32.0,29.58,WNW,294,6.6,6.6,96,0.00,,,0.00,0.00,VWS V14.01,2013-02-27 12:29:00,
2013-02-27 06:32:00,33.0,32.0,29.58,WNW,295,5.5,7.7,96,0.00,,,0.00,0.00,VWS V14.01,2013-02-27 12:32:00,
2013-02-27 06:34:00,33.0,32.0,29.58,WNW,300,5.5,5.5,96,0.00,,,0.00,0.00,VWS V14.01,2013-02-27 12:34:00,
2013-02-27 06:37:00,33.0,32.0,29.58,WNW,295,5.5,6.6,96,0.00,,,0.00,0.00,VWS V14.01,2013-02-27 12:37:00,
2013-02-27 06:38:00,33.0,32.0,29.58,WNW,289,4.4,6.6,96,0.00,,,0.00,0.00,VWS V14.01,2013-02-27 12:38:00,
2013-02-27 06:40:00,33.0,32.0,29.58,NW,305,3.3,6.6,96,0.00,,,0.00,0.00,VWS V14.01,2013-02-27 12:40:00,
2013-02-27 06:43:00,33.0,32.0,29.58,NW,322,5.5,7.7,96,0.00,,,0.00,0.00,VWS V14.01,2013-02-27 12:43:00,
2013-02-27 06:45:00,33.0,32.0,29.58,WNW,298,5.5,7.7,96,0.00,,,0.00,0.00,VWS V14.01,2013-02-27 12:45:00,
2013-02-27 06:48:00,33.0,32.0,29.58,NW,305,3.3,6.6,96,0.00,,,0.00,5.00,VWS V14.01,2013-02-27 12:48:00,
2013-02-27 06:49:00,33.0,32.0,29.58,WNW,295,5.5,5.5,96,0.00,,,0.00,5.00,VWS V14.01,2013-02-27 12:49:00,
2013-02-27 06:50:00,33.0,32.0,29.58,WNW,299,4.4,9.9,96,0.00,,,0.00,5.00,VWS V14.01,2013-02-27 12:50:00,
2013-02-27 06:51:00,33.0,32.0,29.58,WNW,303,6.6,8.8,96,0.00,,,0.00,5.00,VWS V14.01,2013-02-27 12:51:00,
2013-02-27 06:53:00,32.9,31.9,29.58,WNW,300,4.4,7.7,96,0.00,,,0.00,7.00,VWS V14.01,2013-02-27 12:53:00,
2013-02-27 06:55:00,32.9,31.9,29.58,NW,308,6.6,6.6,96,0.00,,,0.00,7.00,VWS V14.01,2013-02-27 12:55:00,
2013-02-27 06:56:00,32.9,31.9,29.58,WNW,293,3.3,7.7,96,0.00,,,0.00,7.00,VWS V14.01,2013-02-27 12:56:00,
2013-02-27 06:58:00,32.9,31.9,29.58,WNW,293,4.4,7.7,96,0.00,,,0.00,9.00,VWS V14.01,2013-02-27 12:58:00,
2013-02-27 07:00:00,32.9,31.9,29.58,WNW,303,5.5,7.7,96,0.00,,,0.00,9.00,VWS V14.01,2013-02-27 13:00:00,
2013-02-27 07:01:00,32.9,31.9,29.58,WNW,283,6.6,7.7,96,0.00,,,0.00,9.00,VWS V14.01,2013-02-27 13:01:00,
2013-02-27 07:04:00,32.9,31.9,29.59,WNW,301,3.3,5.5,96,0.00,,,0.00,11.00,VWS V14.01,2013-02-27 13:04:00,
2013-02-27 07:05:00,32.9,31.9,29.59,NW,311,2.2,7.7,96,0.00,,,0.00,11.00,VWS V14.01,2013-02-27 13:05:00,
2013-02-27 07:06:00,33.0,32.0,29.59,WNW,294,5.5,6.6,96,0.00,,,0.00,12.00,VWS V14.01,2013-02-27 13:06:00,
2013-02-27 07:09:00,33.0,32.0,29.59,NW,320,6.6,6.6,96,0.00,,,0.00,12.00,VWS V14.01,2013-02-27 13:09:00,
2013-02-27 07:11:00,33.0,32.0,29.59,NW,309,5.5,5.5,96,0.00,,,0.00,14.00,VWS V14.01,2013-02-27 13:11:00,
2013-02-27 07:12:00,33.0,32.0,29.59,WNW,298,6.6,7.7,96,0.00,,,0.00,14.00,VWS V14.01,2013-02-27 13:12:00,
2013-02-27 07:15:00,33.0,32.0,29.59,WNW,289,5.5,6.6,96,0.00,,,0.00,18.00,VWS V14.01,2013-02-27 13:15:00,
2013-02-27 07:16:00,33.0,32.0,29.59,NW,314,3.3,7.7,96,0.00,,,0.00,18.00,VWS V14.01,2013-02-27 13:16:00,
2013-02-27 07:17:00,33.0,32.0,29.59,NW,308,6.6,6.6,96,0.00,,,0.00,18.00,VWS V14.01,2013-02-27 13:17:00,
2013-02-27 07:20:00,33.0,32.2,29.59,NW,304,4.4,7.7,97,0.00,,,0.00,19.00,VWS V14.01,2013-02-27 13:20:00,
2013-02-27 07:21:00,33.0,32.2,29.59,WNW,283,5.5,6.6,97,0.00,,,0.00,19.00,VWS V14.01,2013-02-27 13:21:00,
2013-02-27 07:22:00,33.0,32.2,29.59,WNW,303,6.6,6.6,97,0.00,,,0.00,19.00,VWS V14.01,2013-02-27 13:22:00,
2013-02-27 07:25:00,33.0,32.2,29.60,WNW,303,7.7,8.8,97,0.00,,,0.00,19.00,VWS V14.01,2013-02-27 13:25:00,
2013-02-27 07:26:00,33.0,32.2,29.60,NW,311,5.5,8.8,97,0.00,,,0.00,21.00,VWS V14.01,2013-02-27 13:26:00,
2013-02-27 07:27:00,33.0,32.2,29.60,WNW,295,5.5,9.9,97,0.00,,,0.00,21.00,VWS V14.01,2013-02-27 13:27:00,
2013-02-27 07:28:00,33.0,32.0,29.60,WNW,294,6.6,7.7,96,0.00,,,0.00,21.00,VWS V14.01,2013-02-27 13:28:00,
2013-02-27 07:31:00,33.0,32.2,29.60,NW,305,5.5,6.6,97,0.00,,,0.00,23.00,VWS V14.01,2013-02-27 13:31:00,
2013-02-27 07:32:00,33.0,32.2,29.60,WNW,289,5.5,5.5,97,0.00,,,0.00,23.00,VWS V14.01,2013-02-27 13:32:00,
2013-02-27 07:33:00,33.0,32.2,29.60,WNW,299,7.7,8.8,97,0.00,,,0.00,23.00,VWS V14.01,2013-02-27 13:33:00,
2013-02-27 07:36:00,33.0,32.2,29.60,West,277,6.6,6.6,97,0.00,,,0.00,25.00,VWS V14.01,2013-02-27 13:36:00,
2013-02-27 07:37:00,33.0,32.2,29.60,WNW,282,4.4,6.6,97,0.00,,,0.00,25.00,VWS V14.01,2013-02-27 13:37:00,
2013-02-27 07:38:00,33.0,32.2,29.60,WNW,300,3.3,4.4,97,0.00,,,0.00,25.00,VWS V14.01,2013-02-27 13:38:00,
2013-02-27 07:40:00,33.0,32.2,29.60,WNW,288,4.4,4.4,97,0.00,,,0.00,26.00,VWS V14.01,2013-02-27 13:40:00,
2013-02-27 07:41:00,33.0,32.2,29.60,WNW,289,6.6,6.6,97,0.00,,,0.00,26.00,VWS V14.01,2013-02-27 13:41:00,
2013-02-27 07:42:00,33.0,32.2,29.60,WNW,295,3.3,4.4,97,0.00,,,0.00,26.00,VWS V14.01,2013-02-27 13:42:00,
2013-02-27 07:44:00,33.0,32.2,29.60,WNW,295,4.4,5.5,97,0.00,,,0.00,26.00,VWS V14.01,2013-02-27 13:44:00,
2013-02-27 07:45:00,33.0,32.2,29.60,WNW,296,7.7,8.8,97,0.00,,,0.00,26.00,VWS V14.01,2013-02-27 13:45:00,
2013-02-27 07:48:00,33.0,32.2,29.60,WNW,285,2.2,6.6,97,0.00,,,0.00,28.00,VWS V14.01,2013-02-27 13:48:00,
2013-02-27 07:49:00,33.1,32.3,29.60,WNW,286,2.2,5.5,97,0.00,,,0.00,28.00,VWS V14.01,2013-02-27 13:49:00,
2013-02-27 07:50:00,33.1,32.3,29.60,WNW,283,2.2,4.4,97,0.00,,,0.00,28.00,VWS V14.01,2013-02-27 13:50:00,
2013-02-27 07:53:00,33.1,32.3,29.60,WNW,298,6.6,6.6,97,0.00,,,0.00,28.00,VWS V14.01,2013-02-27 13:53:00,
2013-02-27 07:54:00,33.1,32.3,29.60,WNW,301,5.5,6.6,97,0.00,,,0.00,28.00,VWS V14.01,2013-02-27 13:54:00,
2013-02-27 07:56:00,33.1,32.3,29.61,NW,311,4.4,6.6,97,0.00,,,0.00,28.00,VWS V14.01,2013-02-27 13:56:00,
2013-02-27 07:58:00,33.1,32.3,29.61,WNW,291,5.5,5.5,97,0.00,,,0.00,28.00,VWS V14.01,2013-02-27 13:58:00,
2013-02-27 07:59:00,33.1,32.3,29.61,WNW,299,3.3,5.5,97,0.00,,,0.00,30.00,VWS V14.01,2013-02-27 13:59:00,
2013-02-27 08:00:00,33.1,32.3,29.61,WNW,288,4.4,4.4,97,0.00,,,0.00,30.00,VWS V14.01,2013-02-27 14:00:00,
2013-02-27 08:02:00,33.1,32.3,29.61,NW,305,5.5,6.6,97,0.00,,,0.00,30.00,VWS V14.01,2013-02-27 14:02:00,
2013-02-27 08:04:00,33.1,32.3,29.61,West,271,8.8,8.8,97,0.00,,,0.00,30.00,VWS V14.01,2013-02-27 14:04:00,
2013-02-27 08:06:00,33.1,32.3,29.61,WNW,288,3.3,5.5,97,0.00,,,0.00,30.00,VWS V14.01,2013-02-27 14:06:00,
2013-02-27 08:08:00,33.1,32.3,29.61,West,281,4.4,7.7,97,0.00,,,0.00,30.00,VWS V14.01,2013-02-27 14:08:00,
2013-02-27 08:09:00,33.1,32.3,29.61,WNW,296,5.5,5.5,97,0.00,,,0.00,30.00,VWS V14.01,2013-02-27 14:09:00,
2013-02-27 08:10:00,33.1,32.3,29.61,WNW,286,7.7,7.7,97,0.00,,,0.00,30.00,VWS V14.01,2013-02-27 14:10:00,
2013-02-27 08:11:00,33.1,32.3,29.61,West,265,4.4,7.7,97,0.00,,,0.00,30.00,VWS V14.01,2013-02-27 14:11:00,
2013-02-27 08:13:00,33.1,32.3,29.61,WNW,292,5.5,5.5,97,0.00,,,0.00,32.00,VWS V14.01,2013-02-27 14:13:00,
2013-02-27 08:14:00,33.1,32.3,29.61,NW,305,4.4,4.4,97,0.00,,,0.00,35.00,VWS V14.01,2013-02-27 14:14:00,
2013-02-27 08:15:00,33.1,32.3,29.61,WNW,303,5.5,5.5,97,0.00,,,0.00,37.00,VWS V14.01,2013-02-27 14:15:00,
2013-02-27 08:16:00,33.1,32.3,29.61,WNW,295,5.5,5.5,97,0.00,,,0.00,37.00,VWS V14.01,2013-02-27 14:16:00,
2013-02-27 08:18:00,33.1,32.3,29.61,WNW,293,3.3,4.4,97,0.00,,,0.00,37.00,VWS V14.01,2013-02-27 14:18:00,
2013-02-27 08:20:00,33.1,32.3,29.61,West,263,4.4,6.6,97,0.00,,,0.00,39.00,VWS V14.01,2013-02-27 14:20:00,
2013-02-27 08:21:00,33.1,32.3,29.61,West,280,3.3,4.4,97,0.00,,,0.00,39.00,VWS V14.01,2013-02-27 14:21:00,
2013-02-27 08:23:00,33.1,32.3,29.61,West,279,3.3,4.4,97,0.00,,,0.00,39.00,VWS V14.01,2013-02-27 14:23:00,
2013-02-27 08:25:00,33.1,32.3,29.61,West,269,2.2,5.5,97,0.00,,,0.00,39.00,VWS V14.01,2013-02-27 14:25:00,
2013-02-27 08:26:00,33.1,32.3,29.61,WNW,295,4.4,4.4,97,0.00,,,0.00,39.00,VWS V14.01,2013-02-27 14:26:00,
2013-02-27 08:27:00,33.1,32.3,29.61,West,276,3.3,5.5,97,0.00,,,0.00,40.00,VWS V14.01,2013-02-27 14:27:00,
2013-02-27 08:28:00,33.1,32.3,29.61,West,280,2.2,2.2,97,0.00,,,0.00,40.00,VWS V14.01,2013-02-27 14:28:00,
2013-02-27 08:31:00,33.1,32.3,29.62,West,272,4.4,4.4,97,0.00,,,0.00,46.00,VWS V14.01,2013-02-27 14:31:00,
2013-02-27 08:32:00,33.1,32.3,29.62,WNW,289,5.5,5.5,97,0.00,,,0.00,47.00,VWS V14.01,2013-02-27 14:32:00,
2013-02-27 08:33:00,33.1,32.3,29.62,WNW,296,3.3,5.5,97,0.00,,,0.00,49.00,VWS V14.01,2013-02-27 14:33:00,
2013-02-27 08:36:00,33.1,32.3,29.62,West,279,2.2,6.6,97,0.00,,,0.00,56.00,VWS V14.01,2013-02-27 14:36:00,
2013-02-27 08:37:00,33.1,32.3,29.62,West,270,3.3,6.6,97,0.00,,,0.00,56.00,VWS V14.01,2013-02-27 14:37:00,
2013-02-27 08:38:00,33.1,32.3,29.62,WNW,283,4.4,7.7,97,0.00,,,0.00,60.00,VWS V14.01,2013-02-27 14:38:00,
2013-02-27 08:41:00,33.1,32.3,29.62,WNW,288,4.4,5.5,97,0.00,,,0.00,65.00,VWS V14.01,2013-02-27 14:41:00,
2013-02-27 08:42:00,33.1,32.3,29.62,WNW,288,3.3,5.5,97,0.00,,,0.00,67.00,VWS V14.01,2013-02-27 14:42:00,
2013-02-27 08:43:00,33.1,32.3,29.62,West,280,5.5,8.8,97,0.00,,,0.00,69.00,VWS V14.01,2013-02-27 14:43:00,
2013-02-27 08:44:00,33.1,32.3,29.62,WNW,283,3.3,5.5,97,0.00,,,0.00,74.00,VWS V14.01,2013-02-27 14:44:00,
2013-02-27 08:47:00,33.2,32.4,29.62,WNW,290,3.3,4.4,97,0.00,,,0.00,77.00,VWS V14.01,2013-02-27 14:47:00,
2013-02-27 08:48:00,33.2,32.4,29.62,WNW,284,4.4,6.6,97,0.00,,,0.00,81.00,VWS V14.01,2013-02-27 14:48:00,
2013-02-27 08:50:00,33.2,32.4,29.62,West,280,4.4,8.8,97,0.00,,,0.00,86.00,VWS V14.01,2013-02-27 14:50:00,
2013-02-27 08:52:00,33.2,32.4,29.62,WNW,282,6.6,7.7,97,0.00,,,0.00,86.00,VWS V14.01,2013-02-27 14:52:00,
2013-02-27 08:55:00,33.3,32.5,29.62,West,272,3.3,4.4,97,0.00,,,0.00,91.00,VWS V14.01,2013-02-27 14:55:00,
2013-02-27 08:57:00,33.2,32.4,29.62,WNW,287,3.3,4.4,97,0.00,,,0.00,90.00,VWS V14.01,2013-02-27 14:57:00,
2013-02-27 08:58:00,33.2,32.4,29.62,West,276,4.4,5.5,97,0.00,,,0.00,90.00,VWS V14.01,2013-02-27 14:58:00,
2013-02-27 09:01:00,33.2,32.4,29.62,WNW,287,4.4,4.4,97,0.00,,,0.00,88.00,VWS V14.01,2013-02-27 15:01:00,
2013-02-27 09:02:00,33.2,32.4,29.62,WNW,287,5.5,5.5,97,0.00,,,0.00,88.00,VWS V14.01,2013-02-27 15:02:00,
2013-02-27 09:04:00,33.2,32.4,29.62,WNW,291,4.4,4.4,97,0.00,,,0.00,90.00,VWS V14.01,2013-02-27 15:04:00,
2013-02-27 09:08:00,33.2,32.4,29.62,WNW,283,5.5,5.5,97,0.00,,,0.00,90.00,VWS V14.01,2013-02-27 15:08:00,
2013-02-27 09:10:00,33.3,32.5,29.62,West,277,4.4,4.4,97,0.00,,,0.00,90.00,VWS V14.01,2013-02-27 15:10:00,
2013-02-27 09:13:00,33.3,32.5,29.62,West,279,4.4,5.5,97,0.00,,,0.00,86.00,VWS V14.01,2013-02-27 15:13:00,
2013-02-27 09:15:00,33.3,32.5,29.62,West,276,5.5,5.5,97,0.00,,,0.00,83.00,VWS V14.01,2013-02-27 15:15:00,
2013-02-27 09:18:00,33.3,32.5,29.62,West,272,5.5,7.7,97,0.00,,,0.00,84.00,VWS V14.01,2013-02-27 15:18:00,
2013-02-27 09:19:00,33.3,32.5,29.62,West,261,3.3,5.5,97,0.00,,,0.00,84.00,VWS V14.01,2013-02-27 15:19:00,
2013-02-27 09:20:00,33.3,32.5,29.62,West,274,4.4,5.5,97,0.00,,,0.00,84.00,VWS V14.01,2013-02-27 15:20:00,
2013-02-27 09:23:00,33.3,32.5,29.62,WNW,283,5.5,7.7,97,0.00,,,0.00,88.00,VWS V14.01,2013-02-27 15:23:00,
2013-02-27 09:24:00,33.3,32.5,29.62,West,268,6.6,6.6,97,0.00,,,0.00,88.00,VWS V14.01,2013-02-27 15:24:00,
2013-02-27 09:25:00,33.3,32.5,29.62,West,279,6.6,6.6,97,0.00,,,0.00,91.00,VWS V14.01,2013-02-27 15:25:00,
2013-02-27 09:29:00,33.4,32.6,29.62,WNW,285,5.5,7.7,97,0.00,,,0.00,90.00,VWS V14.01,2013-02-27 15:29:00,
2013-02-27 09:31:00,33.4,32.6,29.62,West,268,3.3,4.4,97,0.00,,,0.00,86.00,VWS V14.01,2013-02-27 15:31:00,
2013-02-27 09:34:00,33.4,32.6,29.62,West,262,7.7,7.7,97,0.00,,,0.00,81.00,VWS V14.01,2013-02-27 15:34:00,
2013-02-27 09:35:00,33.4,32.6,29.62,West,276,5.5,6.6,97,0.00,,,0.00,81.00,VWS V14.01,2013-02-27 15:35:00,
2013-02-27 09:37:00,33.3,32.5,29.62,West,266,4.4,6.6,97,0.00,,,0.00,84.00,VWS V14.01,2013-02-27 15:37:00,
2013-02-27 09:38:00,33.3,32.5,29.62,West,262,6.6,6.6,97,0.00,,,0.00,86.00,VWS V14.01,2013-02-27 15:38:00,
2013-02-27 09:39:00,33.3,32.5,29.62,West,277,4.4,6.6,97,0.00,,,0.00,86.00,VWS V14.01,2013-02-27 15:39:00,
2013-02-27 09:40:00,33.4,32.6,29.62,West,261,5.5,5.5,97,0.00,,,0.00,88.00,VWS V14.01,2013-02-27 15:40:00,
2013-02-27 09:42:00,33.4,32.6,29.62,WNW,285,6.6,6.6,97,0.00,,,0.00,97.00,VWS V14.01,2013-02-27 15:42:00,
2013-02-27 09:43:00,33.3,32.5,29.62,WNW,292,6.6,6.6,97,0.00,,,0.00,105.00,VWS V14.01,2013-02-27 15:43:00,
2013-02-27 09:44:00,33.4,32.6,29.62,WNW,297,7.7,7.7,97,0.00,,,0.00,105.00,VWS V14.01,2013-02-27 15:44:00,
2013-02-27 09:46:00,33.4,32.6,29.62,WNW,296,6.6,8.8,97,0.00,,,0.00,118.00,VWS V14.01,2013-02-27 15:46:00,
2013-02-27 09:47:00,33.4,32.6,29.62,WNW,292,5.5,8.8,97,0.00,,,0.00,120.00,VWS V14.01,2013-02-27 15:47:00,
2013-02-27 09:49:00,33.4,32.6,29.62,NW,311,5.5,7.7,97,0.00,,,0.00,114.00,VWS V14.01,2013-02-27 15:49:00,
2013-02-27 09:51:00,33.4,32.6,29.62,WNW,293,7.7,7.7,97,0.00,,,0.00,116.00,VWS V14.01,2013-02-27 15:51:00,
2013-02-27 09:54:00,33.4,32.4,29.62,West,266,6.6,11.0,96,0.00,,,0.00,111.00,VWS V14.01,2013-02-27 15:54:00,
2013-02-27 09:55:00,33.3,32.3,29.62,West,269,6.6,6.6,96,0.00,,,0.00,109.00,VWS V14.01,2013-02-27 15:55:00,
2013-02-27 09:56:00,33.3,32.5,29.62,West,269,5.5,5.5,97,0.00,,,0.00,104.00,VWS V14.01,2013-02-27 15:56:00,
2013-02-27 09:59:00,33.2,32.4,29.62,WNW,290,5.5,6.6,97,0.00,,,0.00,102.00,VWS V14.01,2013-02-27 15:59:00,
2013-02-27 10:00:00,33.2,32.4,29.62,NW,316,6.6,7.7,97,0.00,,,0.00,102.00,VWS V14.01,2013-02-27 16:00:00,
2013-02-27 10:02:00,33.2,32.4,29.62,WNW,293,6.6,6.6,97,0.00,,,0.00,109.00,VWS V14.01,2013-02-27 16:02:00,
2013-02-27 10:04:00,33.1,32.3,29.62,West,272,6.6,8.8,97,0.00,,,0.00,114.00,VWS V14.01,2013-02-27 16:04:00,
2013-02-27 10:06:00,33.1,32.3,29.62,West,274,5.5,7.7,97,0.00,,,0.00,120.00,VWS V14.01,2013-02-27 16:06:00,
2013-02-27 10:07:00,33.0,32.2,29.62,WNW,289,7.7,9.9,97,0.00,,,0.00,130.00,VWS V14.01,2013-02-27 16:07:00,
2013-02-27 10:09:00,33.0,32.0,29.62,WNW,287,8.8,8.8,96,0.00,,,0.00,130.00,VWS V14.01,2013-02-27 16:09:00,
2013-02-27 10:12:00,33.0,32.0,29.62,West,276,6.6,7.7,96,0.00,,,0.00,120.00,VWS V14.01,2013-02-27 16:12:00,
2013-02-27 10:14:00,32.9,31.9,29.62,West,273,5.5,6.6,96,0.00,,,0.00,113.00,VWS V14.01,2013-02-27 16:14:00,
2013-02-27 10:17:00,32.8,31.8,29.62,WNW,285,7.7,11.0,96,0.00,,,0.00,116.00,VWS V14.01,2013-02-27 16:17:00,
2013-02-27 10:18:00,32.8,31.8,29.62,WNW,292,4.4,11.0,96,0.00,,,0.00,116.00,VWS V14.01,2013-02-27 16:18:00,
2013-02-27 10:20:00,32.8,31.8,29.62,WSW,252,6.6,7.7,96,0.00,,,0.00,118.00,VWS V14.01,2013-02-27 16:20:00,
2013-02-27 10:23:00,32.8,31.8,29.62,West,281,6.6,7.7,96,0.00,,,0.00,135.00,VWS V14.01,2013-02-27 16:23:00,
2013-02-27 10:25:00,32.9,31.9,29.62,West,264,7.7,11.0,96,0.00,,,0.00,156.00,VWS V14.01,2013-02-27 16:25:00,
2013-02-27 10:27:00,32.9,31.9,29.62,WNW,293,4.4,6.6,96,0.00,,,0.00,163.00,VWS V14.01,2013-02-27 16:27:00,
2013-02-27 10:29:00,33.0,32.0,29.62,West,273,5.5,8.8,96,0.00,,,0.00,158.00,VWS V14.01,2013-02-27 16:29:00,
2013-02-27 10:30:00,33.0,32.0,29.62,West,269,7.7,7.7,96,0.00,,,0.00,160.00,VWS V14.01,2013-02-27 16:30:00,
2013-02-27 10:32:00,33.0,32.0,29.62,West,273,5.5,6.6,96,0.00,,,0.00,141.00,VWS V14.01,2013-02-27 16:32:00,
2013-02-27 10:34:00,33.0,32.0,29.62,WSW,249,4.4,4.4,96,0.00,,,0.00,146.00,VWS V14.01,2013-02-27 16:34:00,
2013-02-27 10:36:00,33.0,32.0,29.62,West,279,8.8,9.9,96,0.00,,,0.00,151.00,VWS V14.01,2013-02-27 16:36:00,
2013-02-27 10:37:00,33.0,32.0,29.62,West,272,4.4,6.6,96,0.00,,,0.00,153.00,VWS V14.01,2013-02-27 16:37:00,
2013-02-27 10:39:00,33.0,32.0,29.62,WNW,291,6.6,11.0,96,0.00,,,0.00,163.00,VWS V14.01,2013-02-27 16:39:00,
2013-02-27 10:40:00,33.0,32.0,29.62,NW,308,12.1,12.1,96,0.00,,,0.00,162.00,VWS V14.01,2013-02-27 16:40:00,
2013-02-27 10:41:00,33.0,32.0,29.62,WNW,285,6.6,9.9,96,0.00,,,0.00,162.00,VWS V14.01,2013-02-27 16:41:00,
2013-02-27 10:42:00,33.0,32.0,29.62,WNW,295,7.7,7.7,96,0.00,,,0.00,167.00,VWS V14.01,2013-02-27 16:42:00,
2013-02-27 10:44:00,32.9,31.9,29.62,West,274,7.7,8.8,96,0.00,,,0.00,176.00,VWS V14.01,2013-02-27 16:44:00,
2013-02-27 10:45:00,32.8,31.8,29.62,WNW,303,6.6,12.1,96,0.00,,,0.00,174.00,VWS V14.01,2013-02-27 16:45:00,
2013-02-27 10:46:00,32.8,31.8,29.62,WNW,285,6.6,9.9,96,0.00,,,0.00,179.00,VWS V14.01,2013-02-27 16:46:00,
2013-02-27 10:47:00,32.8,31.8,29.62,WNW,295,7.7,12.1,96,0.00,,,0.00,179.00,VWS V14.01,2013-02-27 16:47:00,
2013-02-27 10:50:00,32.9,31.9,29.62,WNW,303,8.8,12.1,96,0.00,,,0.00,163.00,VWS V14.01,2013-02-27 16:50:00,
2013-02-27 10:51:00,32.8,31.8,29.62,WNW,282,5.5,8.8,96,0.00,,,0.00,155.00,VWS V14.01,2013-02-27 16:51:00,
2013-02-27 10:53:00,32.8,31.8,29.62,WSW,250,5.5,6.6,96,0.00,,,0.00,153.00,VWS V14.01,2013-02-27 16:53:00,
2013-02-27 10:55:00,32.8,31.8,29.62,WNW,287,11.0,11.0,96,0.00,,,0.00,163.00,VWS V14.01,2013-02-27 16:55:00,
2013-02-27 10:56:00,32.8,31.8,29.62,WNW,282,11.0,12.1,96,0.00,,,0.00,163.00,VWS V14.01,2013-02-27 16:56:00,
2013-02-27 10:58:00,32.7,31.7,29.62,WNW,295,7.7,8.8,96,0.00,,,0.00,163.00,VWS V14.01,2013-02-27 16:58:00,
2013-02-27 11:00:00,32.7,31.4,29.62,West,281,5.5,6.6,95,0.00,,,0.00,162.00,VWS V14.01,2013-02-27 17:00:00,
2013-02-27 11:01:00,32.7,31.7,29.62,WNW,289,12.1,12.1,96,0.00,,,0.00,167.00,VWS V14.01,2013-02-27 17:01:00,
2013-02-27 11:02:00,32.7,31.4,29.62,West,276,9.9,12.1,95,0.00,,,0.00,163.00,VWS V14.01,2013-02-27 17:02:00,
2013-02-27 11:04:00,32.6,31.3,29.62,West,264,7.7,11.0,95,0.00,,,0.00,162.00,VWS V14.01,2013-02-27 17:04:00,
2013-02-27 11:06:00,32.6,31.3,29.62,WNW,298,7.7,11.0,95,0.00,,,0.00,167.00,VWS V14.01,2013-02-27 17:06:00,
2013-02-27 11:07:00,32.6,31.3,29.62,West,275,6.6,9.9,95,0.00,,,0.00,165.00,VWS V14.01,2013-02-27 17:07:00,
2013-02-27 11:09:00,32.6,31.3,29.62,West,268,7.7,11.0,95,0.00,,,0.00,167.00,VWS V14.01,2013-02-27 17:09:00,
2013-02-27 11:11:00,32.7,31.4,29.62,WNW,285,6.6,8.8,95,0.00,,,0.00,172.00,VWS V14.01,2013-02-27 17:11:00,
2013-02-27 11:12:00,32.7,31.4,29.62,WNW,284,7.7,11.0,95,0.00,,,0.00,179.00,VWS V14.01,2013-02-27 17:12:00,
2013-02-27 11:14:00,32.8,31.5,29.62,West,266,6.6,7.7,95,0.00,,,0.00,179.00,VWS V14.01,2013-02-27 17:14:00,
2013-02-27 11:16:00,32.8,31.5,29.62,West,273,8.8,11.0,95,0.00,,,0.00,179.00,VWS V14.01,2013-02-27 17:16:00,
2013-02-27 11:17:00,32.7,31.4,29.62,WNW,295,5.5,9.9,95,0.00,,,0.00,172.00,VWS V14.01,2013-02-27 17:17:00,
2013-02-27 11:20:00,32.6,31.3,29.62,West,281,7.7,9.9,95,0.00,,,0.00,158.00,VWS V14.01,2013-02-27 17:20:00,
2013-02-27 11:21:00,32.6,31.3,29.62,West,277,5.5,9.9,95,0.00,,,0.00,162.00,VWS V14.01,2013-02-27 17:21:00,
2013-02-27 11:22:00,32.7,31.4,29.62,West,278,11.0,11.0,95,0.00,,,0.00,158.00,VWS V14.01,2013-02-27 17:22:00,
2013-02-27 11:26:00,32.8,31.5,29.62,West,271,9.9,11.0,95,0.00,,,0.00,162.00,VWS V14.01,2013-02-27 17:26:00,
2013-02-27 11:27:00,32.8,31.5,29.62,WNW,295,7.7,11.0,95,0.00,,,0.00,162.00,VWS V14.01,2013-02-27 17:27:00,
2013-02-27 11:28:00,32.8,31.5,29.62,WNW,292,9.9,11.0,95,0.00,,,0.00,165.00,VWS V14.01,2013-02-27 17:28:00,
2013-02-27 11:32:00,32.7,31.4,29.62,WNW,301,6.6,7.7,95,0.00,,,0.00,174.00,VWS V14.01,2013-02-27 17:32:00,
2013-02-27 11:33:00,32.8,31.5,29.62,West,265,6.6,6.6,95,0.00,,,0.00,172.00,VWS V14.01,2013-02-27 17:33:00,
2013-02-27 11:34:00,32.8,31.5,29.62,WNW,289,6.6,6.6,95,0.00,,,0.00,179.00,VWS V14.01,2013-02-27 17:34:00,
2013-02-27 11:37:00,32.7,31.2,29.62,WNW,297,5.5,12.1,94,0.00,,,0.00,179.00,VWS V14.01,2013-02-27 17:37:00,
2013-02-27 11:38:00,32.7,31.2,29.62,West,266,5.5,5.5,94,0.00,,,0.00,174.00,VWS V14.01,2013-02-27 17:38:00,
2013-02-27 11:39:00,32.7,31.2,29.62,West,276,4.4,8.8,94,0.00,,,0.00,171.00,VWS V14.01,2013-02-27 17:39:00,
2013-02-27 11:40:00,32.7,31.2,29.62,West,260,6.6,8.8,94,0.00,,,0.00,172.00,VWS V14.01,2013-02-27 17:40:00,
2013-02-27 11:42:00,32.8,31.3,29.62,WSW,253,7.7,7.7,94,0.00,,,0.00,179.00,VWS V14.01,2013-02-27 17:42:00,
2013-02-27 11:44:00,32.8,31.3,29.62,West,267,6.6,8.8,94,0.00,,,0.00,179.00,VWS V14.01,2013-02-27 17:44:00,
2013-02-27 11:45:00,32.8,31.3,29.62,West,279,3.3,7.7,94,0.00,,,0.00,178.00,VWS V14.01,2013-02-27 17:45:00,
2013-02-27 11:48:00,32.9,31.4,29.62,West,260,9.9,9.9,94,0.00,,,0.00,176.00,VWS V14.01,2013-02-27 17:48:00,
2013-02-27 11:50:00,32.9,31.4,29.62,WNW,283,12.1,12.1,94,0.00,,,0.00,176.00,VWS V14.01,2013-02-27 17:50:00,
2013-02-27 11:53:00,33.0,31.5,29.62,West,273,5.5,7.7,94,0.00,,,0.00,186.00,VWS V14.01,2013-02-27 17:53:00,
2013-02-27 11:55:00,33.0,31.5,29.62,West,276,8.8,9.9,94,0.00,,,0.00,197.00,VWS V14.01,2013-02-27 17:55:00,
2013-02-27 11:56:00,33.0,31.5,29.62,West,276,5.5,7.7,94,0.00,,,0.00,200.00,VWS V14.01,2013-02-27 17:56:00,
2013-02-27 11:59:00,33.0,31.5,29.62,West,259,6.6,7.7,94,0.00,,,0.00,218.00,VWS V14.01,2013-02-27 17:59:00,
2013-02-27 12:00:00,33.0,31.5,29.62,WNW,297,4.4,9.9,94,0.00,,,0.00,227.00,VWS V14.01,2013-02-27 18:00:00,
2013-02-27 12:01:00,33.1,31.6,29.62,West,267,6.6,7.7,94,0.00,,,0.00,253.00,VWS V14.01,2013-02-27 18:01:00,
2013-02-27 12:04:00,33.2,31.7,29.62,West,270,5.5,6.6,94,0.00,,,0.00,271.00,VWS V14.01,2013-02-27 18:04:00,
2013-02-27 12:05:00,33.3,31.8,29.62,WNW,294,7.7,7.7,94,0.00,,,0.00,272.00,VWS V14.01,2013-02-27 18:05:00,
2013-02-27 12:07:00,33.3,31.5,29.62,West,277,6.6,11.0,93,0.00,,,0.00,265.00,VWS V14.01,2013-02-27 18:07:00,
2013-02-27 12:09:00,33.4,31.6,29.62,West,272,7.7,9.9,93,0.00,,,0.00,258.00,VWS V14.01,2013-02-27 18:09:00,
2013-02-27 12:11:00,33.4,31.6,29.62,West,272,8.8,11.0,93,0.00,,,0.00,225.00,VWS V14.01,2013-02-27 18:11:00,
2013-02-27 12:13:00,33.3,31.5,29.62,West,281,8.8,12.1,93,0.00,,,0.00,227.00,VWS V14.01,2013-02-27 18:13:00,
2013-02-27 12:15:00,33.4,31.6,29.62,West,274,5.5,8.8,93,0.00,,,0.00,213.00,VWS V14.01,2013-02-27 18:15:00,
2013-02-27 12:17:00,33.3,31.5,29.62,WNW,286,7.7,8.8,93,0.00,,,0.00,200.00,VWS V14.01,2013-02-27 18:17:00,
2013-02-27 12:18:00,33.3,31.5,29.62,WNW,289,4.4,7.7,93,0.00,,,0.00,206.00,VWS V14.01,2013-02-27 18:18:00,
2013-02-27 12:20:00,33.3,31.5,29.62,West,273,7.7,7.7,93,0.00,,,0.00,202.00,VWS V14.01,2013-02-27 18:20:00,
2013-02-27 12:22:00,33.2,31.4,29.62,NW,314,9.9,9.9,93,0.00,,,0.00,190.00,VWS V14.01,2013-02-27 18:22:00,
2013-02-27 12:23:00,33.2,31.4,29.62,NW,309,11.0,11.0,93,0.00,,,0.00,188.00,VWS V14.01,2013-02-27 18:23:00,
2013-02-27 12:26:00,33.2,31.4,29.62,WNW,297,7.7,7.7,93,0.00,,,0.00,195.00,VWS V14.01,2013-02-27 18:26:00,
2013-02-27 12:27:00,33.1,31.3,29.62,West,276,4.4,4.4,93,0.00,,,0.00,197.00,VWS V14.01,2013-02-27 18:27:00,
2013-02-27 12:28:00,33.1,31.3,29.62,West,269,11.0,12.1,93,0.00,,,0.00,199.00,VWS V14.01,2013-02-27 18:28:00,
2013-02-27 12:29:00,33.1,31.3,29.62,WNW,298,4.4,11.0,93,0.00,,,0.00,204.00,VWS V14.01,2013-02-27 18:29:00,
2013-02-27 12:32:00,33.1,31.3,29.62,WNW,299,5.5,8.8,93,0.00,,,0.00,200.00,VWS V14.01,2013-02-27 18:32:00,
2013-02-27 12:33:00,33.2,31.4,29.62,WNW,288,6.6,8.8,93,0.00,,,0.00,199.00,VWS V14.01,2013-02-27 18:33:00,
2013-02-27 12:34:00,33.2,31.4,29.62,West,275,13.2,13.2,93,0.00,,,0.00,197.00,VWS V14.01,2013-02-27 18:34:00,
2013-02-27 12:37:00,33.1,31.3,29.63,WNW,285,9.9,11.0,93,0.00,,,0.00,195.00,VWS V14.01,2013-02-27 18:37:00,
2013-02-27 12:38:00,33.1,31.3,29.62,WNW,291,6.6,9.9,93,0.00,,,0.00,199.00,VWS V14.01,2013-02-27 18:38:00,
2013-02-27 12:39:00,33.0,30.9,29.63,WNW,283,8.8,8.8,92,0.00,,,0.00,202.00,VWS V14.01,2013-02-27 18:39:00,
2013-02-27 12:42:00,33.0,31.2,29.62,WNW,287,6.6,6.6,93,0.00,,,0.00,206.00,VWS V14.01,2013-02-27 18:42:00,
2013-02-27 12:43:00,33.1,31.3,29.62,West,280,6.6,6.6,93,0.00,,,0.00,209.00,VWS V14.01,2013-02-27 18:43:00,
2013-02-27 12:44:00,33.2,31.4,29.62,West,278,7.7,11.0,93,0.00,,,0.00,214.00,VWS V14.01,2013-02-27 18:44:00,
2013-02-27 12:46:00,33.2,31.4,29.62,West,271,5.5,6.6,93,0.00,,,0.00,221.00,VWS V14.01,2013-02-27 18:46:00,
2013-02-27 12:47:00,33.2,31.4,29.62,NW,312,8.8,8.8,93,0.00,,,0.00,227.00,VWS V14.01,2013-02-27 18:47:00,
2013-02-27 12:49:00,33.1,31.0,29.62,NW,315,11.0,11.0,92,0.00,,,0.00,236.00,VWS V14.01,2013-02-27 18:49:00,
2013-02-27 12:50:00,33.1,31.0,29.62,WNW,289,8.8,9.9,92,0.00,,,0.00,239.00,VWS V14.01,2013-02-27 18:50:00,
2013-02-27 12:51:00,33.1,31.0,29.62,WNW,296,6.6,7.7,92,0.00,,,0.00,241.00,VWS V14.01,2013-02-27 18:51:00,
2013-02-27 12:52:00,33.1,31.0,29.62,WNW,283,7.7,7.7,92,0.00,,,0.00,232.00,VWS V14.01,2013-02-27 18:52:00,
2013-02-27 12:54:00,33.2,31.4,29.62,WSW,257,8.8,9.9,93,0.00,,,0.00,223.00,VWS V14.01,2013-02-27 18:54:00,
2013-02-27 12:55:00,33.3,31.5,29.62,West,262,8.8,9.9,93,0.00,,,0.00,214.00,VWS V14.01,2013-02-27 18:55:00,
2013-02-27 12:57:00,33.2,31.1,29.62,West,261,7.7,7.7,92,0.00,,,0.00,206.00,VWS V14.01,2013-02-27 18:57:00,
2013-02-27 12:58:00,33.2,31.1,29.62,WNW,285,15.4,15.4,92,0.00,,,0.00,195.00,VWS V14.01,2013-02-27 18:58:00,
2013-02-27 13:00:00,33.1,31.0,29.62,WNW,297,9.9,9.9,92,0.00,,,0.00,197.00,VWS V14.01,2013-02-27 19:00:00,
2013-02-27 13:02:00,33.1,31.0,29.62,NW,313,6.6,6.6,92,0.00,,,0.00,216.00,VWS V14.01,2013-02-27 19:02:00,
2013-02-27 13:03:00,33.0,30.9,29.62,WNW,287,5.5,7.7,92,0.00,,,0.00,220.00,VWS V14.01,2013-02-27 19:03:00,
2013-02-27 13:05:00,33.0,30.9,29.62,WNW,300,8.8,9.9,92,0.00,,,0.00,220.00,VWS V14.01,2013-02-27 19:05:00,
2013-02-27 13:06:00,33.0,30.9,29.62,West,278,7.7,13.2,92,0.00,,,0.00,218.00,VWS V14.01,2013-02-27 19:06:00,
2013-02-27 13:08:00,33.1,31.3,29.62,WNW,298,9.9,12.1,93,0.00,,,0.00,220.00,VWS V14.01,2013-02-27 19:08:00,
2013-02-27 13:11:00,33.0,31.2,29.62,NW,310,11.0,12.1,93,0.00,,,0.00,216.00,VWS V14.01,2013-02-27 19:11:00,
2013-02-27 13:13:00,33.1,31.3,29.62,NW,316,9.9,12.1,93,0.00,,,0.00,211.00,VWS V14.01,2013-02-27 19:13:00,
2013-02-27 13:16:00,33.0,31.2,29.62,West,272,9.9,11.0,93,0.00,,,0.00,213.00,VWS V14.01,2013-02-27 19:16:00,
2013-02-27 13:17:00,33.0,31.2,29.62,NW,304,8.8,9.9,93,0.00,,,0.00,207.00,VWS V14.01,2013-02-27 19:17:00,
2013-02-27 13:19:00,33.0,30.9,29.62,WNW,296,7.7,9.9,92,0.00,,,0.00,204.00,VWS V14.01,2013-02-27 19:19:00,
2013-02-27 13:21:00,33.0,31.2,29.62,NW,315,6.6,6.6,93,0.00,,,0.00,200.00,VWS V14.01,2013-02-27 19:21:00,
2013-02-27 13:22:00,33.0,30.9,29.62,WNW,288,7.7,9.9,92,0.00,,,0.00,199.00,VWS V14.01,2013-02-27 19:22:00,
2013-02-27 13:24:00,33.0,30.9,29.62,West,278,8.8,9.9,92,0.00,,,0.00,197.00,VWS V14.01,2013-02-27 19:24:00,
2013-02-27 13:27:00,33.0,30.9,29.62,West,262,9.9,12.1,92,0.00,,,0.00,195.00,VWS V14.01,2013-02-27 19:27:00,
2013-02-27 13:28:00,33.0,30.9,29.63,WNW,290,7.7,8.8,92,0.00,,,0.00,192.00,VWS V14.01,2013-02-27 19:28:00,
2013-02-27 13:29:00,33.0,30.9,29.63,WNW,285,8.8,9.9,92,0.00,,,0.00,190.00,VWS V14.01,2013-02-27 19:29:00,
2013-02-27 13:32:00,33.0,31.2,29.63,West,278,9.9,12.1,93,0.00,,,0.00,181.00,VWS V14.01,2013-02-27 19:32:00,
2013-02-27 13:33:00,33.0,30.9,29.63,WNW,293,7.7,12.1,92,0.00,,,0.00,181.00,VWS V14.01,2013-02-27 19:33:00,
2013-02-27 13:35:00,33.0,30.9,29.63,West,270,9.9,9.9,92,0.00,,,0.00,179.00,VWS V14.01,2013-02-27 19:35:00,
2013-02-27 13:37:00,33.1,31.3,29.62,WNW,299,7.7,9.9,93,0.00,,,0.00,179.00,VWS V14.01,2013-02-27 19:37:00,
2013-02-27 13:38:00,33.1,31.3,29.62,West,281,5.5,9.9,93,0.00,,,0.00,181.00,VWS V14.01,2013-02-27 19:38:00,
2013-02-27 13:40:00,33.2,31.4,29.63,WSW,243,6.6,12.1,93,0.00,,,0.00,195.00,VWS V14.01,2013-02-27 19:40:00,
2013-02-27 13:42:00,33.2,31.1,29.62,WNW,285,7.7,7.7,92,0.00,,,0.00,204.00,VWS V14.01,2013-02-27 19:42:00,
2013-02-27 13:44:00,33.2,31.1,29.63,WSW,256,7.7,7.7,92,0.00,,,0.00,202.00,VWS V14.01,2013-02-27 19:44:00,
2013-02-27 13:45:00,33.2,31.1,29.63,West,265,8.8,11.0,92,0.00,,,0.00,209.00,VWS V14.01,2013-02-27 19:45:00,
2013-02-27 13:48:00,33.3,31.2,29.63,WNW,285,4.4,9.9,92,0.00,,,0.00,204.00,VWS V14.01,2013-02-27 19:48:00,
2013-02-27 13:49:00,33.3,31.2,29.63,WNW,283,9.9,9.9,92,0.00,,,0.00,211.00,VWS V14.01,2013-02-27 19:49:00,
2013-02-27 13:50:00,33.3,31.2,29.63,West,280,7.7,9.9,92,0.00,,,0.00,211.00,VWS V14.01,2013-02-27 19:50:00,
2013-02-27 13:51:00,33.3,31.2,29.63,West,275,6.6,6.6,92,0.00,,,0.00,213.00,VWS V14.01,2013-02-27 19:51:00,
2013-02-27 13:54:00,33.3,31.2,29.63,WNW,293,6.6,11.0,92,0.00,,,0.00,197.00,VWS V14.01,2013-02-27 19:54:00,
2013-02-27 13:55:00,33.3,31.2,29.63,West,260,7.7,11.0,92,0.00,,,0.00,193.00,VWS V14.01,2013-02-27 19:55:00,
2013-02-27 13:57:00,33.3,31.2,29.63,WNW,289,4.4,8.8,92,0.00,,,0.00,181.00,VWS V14.01,2013-02-27 19:57:00,
2013-02-27 13:59:00,33.4,31.3,29.63,WNW,297,13.2,13.2,92,0.00,,,0.00,171.00,VWS V14.01,2013-02-27 19:59:00,
2013-02-27 14:01:00,33.4,31.3,29.63,WSW,253,8.8,11.0,92,0.00,,,0.00,171.00,VWS V14.01,2013-02-27 20:01:00,
2013-02-27 14:02:00,33.3,31.2,29.63,West,280,8.8,8.8,92,0.00,,,0.00,171.00,VWS V14.01,2013-02-27 20:02:00,
2013-02-27 14:04:00,33.3,31.2,29.63,West,260,8.8,8.8,92,0.00,,,0.00,171.00,VWS V14.01,2013-02-27 20:04:00,
2013-02-27 14:06:00,33.2,31.1,29.63,WNW,285,7.7,9.9,92,0.00,,,0.00,163.00,VWS V14.01,2013-02-27 20:06:00,
2013-02-27 14:08:00,33.2,31.1,29.63,West,277,8.8,11.0,92,0.00,,,0.00,171.00,VWS V14.01,2013-02-27 20:08:00,
2013-02-27 14:10:00,33.2,31.1,29.63,WNW,286,6.6,9.9,92,0.00,,,0.00,178.00,VWS V14.01,2013-02-27 20:10:00,
2013-02-27 14:11:00,33.2,31.1,29.63,West,278,5.5,8.8,92,0.00,,,0.00,172.00,VWS V14.01,2013-02-27 20:11:00,
2013-02-27 14:12:00,33.2,31.1,29.63,West,268,7.7,11.0,92,0.00,,,0.00,174.00,VWS V14.01,2013-02-27 20:12:00,
2013-02-27 14:14:00,33.2,31.1,29.63,West,278,9.9,14.3,92,0.00,,,0.00,165.00,VWS V14.01,2013-02-27 20:14:00,
2013-02-27 14:15:00,33.2,31.1,29.63,West,273,11.0,11.0,92,0.00,,,0.00,165.00,VWS V14.01,2013-02-27 20:15:00,
2013-02-27 14:16:00,33.2,31.1,29.63,West,271,4.4,11.0,92,0.00,,,0.00,169.00,VWS V14.01,2013-02-27 20:16:00,
2013-02-27 14:17:00,33.3,31.2,29.63,West,270,7.7,9.9,92,0.00,,,0.00,169.00,VWS V14.01,2013-02-27 20:17:00,
2013-02-27 14:19:00,33.3,31.2,29.64,WSW,240,6.6,7.7,92,0.00,,,0.00,165.00,VWS V14.01,2013-02-27 20:19:00,
2013-02-27 14:20:00,33.3,31.2,29.64,West,280,8.8,8.8,92,0.00,,,0.00,165.00,VWS V14.01,2013-02-27 20:20:00,
2013-02-27 14:21:00,33.3,31.2,29.63,West,265,12.1,12.1,92,0.00,,,0.00,165.00,VWS V14.01,2013-02-27 20:21:00,
2013-02-27 14:22:00,33.3,31.2,29.64,West,270,9.9,9.9,92,0.00,,,0.00,160.00,VWS V14.01,2013-02-27 20:22:00,
2013-02-27 14:25:00,33.4,31.3,29.64,West,272,6.6,8.8,92,0.00,,,0.00,137.00,VWS V14.01,2013-02-27 20:25:00,
2013-02-27 14:26:00,33.4,31.3,29.64,WSW,256,7.7,9.9,92,0.00,,,0.00,137.00,VWS V14.01,2013-02-27 20:26:00,
2013-02-27 14:29:00,33.4,31.3,29.64,West,280,8.8,8.8,92,0.00,,,0.00,127.00,VWS V14.01,2013-02-27 20:29:00,
2013-02-27 14:30:00,33.3,31.2,29.64,West,278,8.8,15.4,92,0.00,,,0.00,127.00,VWS V14.01,2013-02-27 20:30:00,
2013-02-27 14:31:00,33.3,31.2,29.64,West,270,7.7,15.4,92,0.00,,,0.00,123.00,VWS V14.01,2013-02-27 20:31:00,
2013-02-27 14:32:00,33.4,31.3,29.64,West,266,9.9,11.0,92,0.00,,,0.00,128.00,VWS V14.01,2013-02-27 20:32:00,
2013-02-27 14:34:00,33.4,31.3,29.64,WNW,291,13.2,13.2,92,0.00,,,0.00,128.00,VWS V14.01,2013-02-27 20:34:00,
2013-02-27 14:36:00,33.3,31.2,29.64,West,270,7.7,14.3,92,0.00,,,0.00,120.00,VWS V14.01,2013-02-27 20:36:00,
2013-02-27 14:38:00,33.3,31.2,29.64,WNW,289,6.6,7.7,92,0.00,,,0.00,116.00,VWS V14.01,2013-02-27 20:38:00,
2013-02-27 14:39:00,33.3,31.2,29.64,West,272,6.6,14.3,92,0.00,,,0.00,114.00,VWS V14.01,2013-02-27 20:39:00,
2013-02-27 14:41:00,33.3,31.2,29.64,WNW,299,8.8,9.9,92,0.00,,,0.00,120.00,VWS V14.01,2013-02-27 20:41:00,
2013-02-27 14:42:00,33.2,31.1,29.64,West,281,4.4,9.9,92,0.00,,,0.00,118.00,VWS V14.01,2013-02-27 20:42:00,
2013-02-27 14:43:00,33.2,31.1,29.64,West,276,7.7,11.0,92,0.00,,,0.00,121.00,VWS V14.01,2013-02-27 20:43:00,
2013-02-27 14:45:00,33.3,31.5,29.64,West,268,5.5,8.8,93,0.00,,,0.00,121.00,VWS V14.01,2013-02-27 20:45:00,
2013-02-27 14:46:00,33.3,31.5,29.64,West,278,9.9,9.9,93,0.00,,,0.00,121.00,VWS V14.01,2013-02-27 20:46:00,
2013-02-27 14:47:00,33.3,31.5,29.64,West,277,5.5,7.7,93,0.00,,,0.00,118.00,VWS V14.01,2013-02-27 20:47:00,
2013-02-27 14:48:00,33.3,31.5,29.64,West,268,5.5,5.5,93,0.00,,,0.00,114.00,VWS V14.01,2013-02-27 20:48:00,
2013-02-27 14:51:00,33.3,31.5,29.64,WNW,288,9.9,9.9,93,0.00,,,0.00,118.00,VWS V14.01,2013-02-27 20:51:00,
2013-02-27 14:52:00,33.3,31.5,29.64,West,276,7.7,7.7,93,0.00,,,0.00,118.00,VWS V14.01,2013-02-27 20:52:00,
2013-02-27 14:53:00,33.3,31.5,29.64,West,266,11.0,11.0,93,0.00,,,0.00,120.00,VWS V14.01,2013-02-27 20:53:00,
2013-02-27 14:57:00,33.3,31.5,29.64,West,260,6.6,8.8,93,0.00,,,0.00,121.00,VWS V14.01,2013-02-27 20:57:00,
2013-02-27 14:59:00,33.4,31.6,29.65,West,268,6.6,8.8,93,0.00,,,0.00,120.00,VWS V14.01,2013-02-27 20:59:00,
2013-02-27 15:01:00,33.5,31.7,29.65,West,278,11.0,11.0,93,0.00,,,0.00,120.00,VWS V14.01,2013-02-27 21:01:00,
2013-02-27 15:02:00,33.5,31.4,29.65,WSW,247,6.6,11.0,92,0.00,,,0.00,118.00,VWS V14.01,2013-02-27 21:02:00,
2013-02-27 15:04:00,33.4,31.3,29.65,West,281,4.4,8.8,92,0.00,,,0.00,118.00,VWS V14.01,2013-02-27 21:04:00,
2013-02-27 15:06:00,33.4,31.3,29.65,West,264,7.7,7.7,92,0.00,,,0.00,123.00,VWS V14.01,2013-02-27 21:06:00,
2013-02-27 15:07:00,33.4,31.3,29.65,West,275,7.7,7.7,92,0.00,,,0.00,125.00,VWS V14.01,2013-02-27 21:07:00,
2013-02-27 15:08:00,33.4,31.3,29.65,West,266,6.6,7.7,92,0.00,,,0.00,125.00,VWS V14.01,2013-02-27 21:08:00,
2013-02-27 15:09:00,33.4,31.3,29.65,West,271,5.5,8.8,92,0.00,,,0.00,125.00,VWS V14.01,2013-02-27 21:09:00,
2013-02-27 15:11:00,33.4,31.6,29.65,West,275,6.6,8.8,93,0.00,,,0.00,120.00,VWS V14.01,2013-02-27 21:11:00,
2013-02-27 15:12:00,33.5,31.7,29.65,WSW,247,8.8,8.8,93,0.00,,,0.00,120.00,VWS V14.01,2013-02-27 21:12:00,
2013-02-27 15:14:00,33.5,31.7,29.65,WNW,287,7.7,9.9,93,0.00,,,0.00,118.00,VWS V14.01,2013-02-27 21:14:00,
2013-02-27 15:15:00,33.5,31.7,29.65,WNW,287,5.5,7.7,93,0.00,,,0.00,114.00,VWS V14.01,2013-02-27 21:15:00,
2013-02-27 15:17:00,33.4,31.3,29.65,West,267,8.8,9.9,92,0.00,,,0.00,116.00,VWS V14.01,2013-02-27 21:17:00,
2013-02-27 15:18:00,33.4,31.3,29.65,West,274,5.5,8.8,92,0.00,,,0.00,116.00,VWS V14.01,2013-02-27 21:18:00,
2013-02-27 15:19:00,33.4,31.3,29.65,West,260,6.6,6.6,92,0.00,,,0.00,116.00,VWS V14.01,2013-02-27 21:19:00,
2013-02-27 15:20:00,33.4,31.3,29.65,West,272,6.6,8.8,92,0.00,,,0.00,116.00,VWS V14.01,2013-02-27 21:20:00,
2013-02-27 15:22:00,33.4,31.6,29.65,West,274,7.7,7.7,93,0.00,,,0.00,118.00,VWS V14.01,2013-02-27 21:22:00,
2013-02-27 15:23:00,33.4,31.6,29.65,West,269,13.2,13.2,93,0.00,,,0.00,120.00,VWS V14.01,2013-02-27 21:23:00,
2013-02-27 15:25:00,33.4,31.6,29.65,West,276,5.5,9.9,93,0.00,,,0.00,120.00,VWS V14.01,2013-02-27 21:25:00,
2013-02-27 15:28:00,33.4,31.6,29.65,NW,311,6.6,9.9,93,0.00,,,0.00,118.00,VWS V14.01,2013-02-27 21:28:00,
2013-02-27 15:29:00,33.4,31.6,29.65,West,276,5.5,8.8,93,0.00,,,0.00,116.00,VWS V14.01,2013-02-27 21:29:00,
2013-02-27 15:31:00,33.4,31.6,29.65,WSW,249,8.8,8.8,93,0.00,,,0.00,114.00,VWS V14.01,2013-02-27 21:31:00,
2013-02-27 15:33:00,33.3,31.5,29.65,West,270,8.8,8.8,93,0.00,,,0.00,105.00,VWS V14.01,2013-02-27 21:33:00,
2013-02-27 15:34:00,33.3,31.5,29.66,West,261,7.7,12.1,93,0.00,,,0.00,97.00,VWS V14.01,2013-02-27 21:34:00,
2013-02-27 15:36:00,33.3,31.5,29.66,West,278,13.2,13.2,93,0.00,,,0.00,98.00,VWS V14.01,2013-02-27 21:36:00,
2013-02-27 15:38:00,33.3,31.5,29.66,WNW,284,11.0,11.0,93,0.00,,,0.00,95.00,VWS V14.01,2013-02-27 21:38:00,
2013-02-27 15:40:00,33.2,31.4,29.66,WNW,297,6.6,7.7,93,0.00,,,0.00,91.00,VWS V14.01,2013-02-27 21:40:00,
2013-02-27 15:41:00,33.2,31.4,29.66,WNW,285,8.8,9.9,93,0.00,,,0.00,91.00,VWS V14.01,2013-02-27 21:41:00,
2013-02-27 15:42:00,33.2,31.4,29.66,WNW,293,6.6,9.9,93,0.00,,,0.00,91.00,VWS V14.01,2013-02-27 21:42:00,
2013-02-27 15:43:00,33.2,31.4,29.66,West,274,5.5,8.8,93,0.00,,,0.00,91.00,VWS V14.01,2013-02-27 21:43:00,
2013-02-27 15:46:00,33.2,31.4,29.66,WNW,302,6.6,7.7,93,0.00,,,0.00,95.00,VWS V14.01,2013-02-27 21:46:00,
2013-02-27 15:47:00,33.2,31.4,29.66,West,262,12.1,12.1,93,0.00,,,0.00,97.00,VWS V14.01,2013-02-27 21:47:00,
2013-02-27 15:48:00,33.2,31.4,29.66,West,280,7.7,9.9,93,0.00,,,0.00,100.00,VWS V14.01,2013-02-27 21:48:00,
2013-02-27 15:51:00,33.2,31.4,29.66,WSW,249,7.7,7.7,93,0.00,,,0.00,104.00,VWS V14.01,2013-02-27 21:51:00,
2013-02-27 15:52:00,33.2,31.4,29.66,West,278,14.3,14.3,93,0.00,,,0.00,104.00,VWS V14.01,2013-02-27 21:52:00,
2013-02-27 15:53:00,33.2,31.4,29.66,West,275,6.6,6.6,93,0.00,,,0.00,104.00,VWS V14.01,2013-02-27 21:53:00,
2013-02-27 15:56:00,33.1,31.3,29.66,West,273,12.1,12.1,93,0.00,,,0.00,102.00,VWS V14.01,2013-02-27 21:56:00,
2013-02-27 15:57:00,33.1,31.3,29.66,West,269,7.7,12.1,93,0.00,,,0.00,102.00,VWS V14.01,2013-02-27 21:57:00,
2013-02-27 15:59:00,33.1,31.3,29.66,WSW,237,7.7,9.9,93,0.00,,,0.00,102.00,VWS V14.01,2013-02-27 21:59:00,
2013-02-27 16:02:00,33.1,31.3,29.66,WNW,291,9.9,12.1,93,0.00,,,0.00,105.00,VWS V14.01,2013-02-27 22:02:00,
2013-02-27 16:03:00,33.1,31.3,29.66,West,263,8.8,11.0,93,0.00,,,0.00,105.00,VWS V14.01,2013-02-27 22:03:00,
2013-02-27 16:04:00,33.0,31.2,29.66,West,272,6.6,9.9,93,0.00,,,0.00,98.00,VWS V14.01,2013-02-27 22:04:00,
2013-02-27 16:07:00,33.0,31.2,29.66,West,272,12.1,13.2,93,0.00,,,0.00,90.00,VWS V14.01,2013-02-27 22:07:00,
2013-02-27 16:08:00,33.0,31.2,29.66,WNW,285,11.0,12.1,93,0.00,,,0.00,88.00,VWS V14.01,2013-02-27 22:08:00,
2013-02-27 16:09:00,33.0,31.2,29.66,WSW,245,9.9,12.1,93,0.00,,,0.00,88.00,VWS V14.01,2013-02-27 22:09:00,
2013-02-27 16:10:00,33.0,31.2,29.66,West,272,7.7,12.1,93,0.00,,,0.00,84.00,VWS V14.01,2013-02-27 22:10:00,
2013-02-27 16:12:00,33.0,31.2,29.66,West,280,7.7,7.7,93,0.00,,,0.00,86.00,VWS V14.01,2013-02-27 22:12:00,
2013-02-27 16:14:00,33.0,31.2,29.66,WNW,292,4.4,9.9,93,0.00,,,0.00,84.00,VWS V14.01,2013-02-27 22:14:00,
2013-02-27 16:15:00,33.0,31.2,29.66,WSW,258,7.7,12.1,93,0.00,,,0.00,81.00,VWS V14.01,2013-02-27 22:15:00,
2013-02-27 16:17:00,33.0,31.2,29.66,West,263,8.8,11.0,93,0.00,,,0.00,76.00,VWS V14.01,2013-02-27 22:17:00,
2013-02-27 16:18:00,33.0,31.2,29.66,West,280,11.0,12.1,93,0.00,,,0.00,72.00,VWS V14.01,2013-02-27 22:18:00,
2013-02-27 16:19:00,33.0,31.2,29.66,West,265,8.8,15.4,93,0.00,,,0.00,70.00,VWS V14.01,2013-02-27 22:19:00,
2013-02-27 16:21:00,33.0,31.2,29.66,West,266,6.6,6.6,93,0.00,,,0.00,69.00,VWS V14.01,2013-02-27 22:21:00,
2013-02-27 16:23:00,33.0,31.2,29.66,WNW,291,6.6,9.9,93,0.00,,,0.00,63.00,VWS V14.01,2013-02-27 22:23:00,
2013-02-27 16:24:00,33.0,31.2,29.66,NW,305,9.9,9.9,93,0.00,,,0.00,60.00,VWS V14.01,2013-02-27 22:24:00,
2013-02-27 16:27:00,33.0,31.2,29.66,West,275,6.6,6.6,93,0.00,,,0.00,54.00,VWS V14.01,2013-02-27 22:27:00,
2013-02-27 16:28:00,33.0,31.2,29.66,WNW,289,5.5,8.8,93,0.00,,,0.00,53.00,VWS V14.01,2013-02-27 22:28:00,
2013-02-27 16:31:00,33.0,31.2,29.66,WNW,299,9.9,12.1,93,0.00,,,0.00,47.00,VWS V14.01,2013-02-27 22:31:00,
2013-02-27 16:32:00,33.0,31.2,29.66,WNW,303,7.7,7.7,93,0.00,,,0.00,46.00,VWS V14.01,2013-02-27 22:32:00,
2013-02-27 16:33:00,33.0,31.2,29.66,WNW,287,7.7,7.7,93,0.00,,,0.00,46.00,VWS V14.01,2013-02-27 22:33:00,
2013-02-27 16:36:00,33.0,31.2,29.67,WNW,283,4.4,8.8,93,0.00,,,0.00,42.00,VWS V14.01,2013-02-27 22:36:00,
2013-02-27 16:37:00,33.0,31.2,29.66,West,268,8.8,9.9,93,0.00,,,0.00,40.00,VWS V14.01,2013-02-27 22:37:00,
2013-02-27 16:38:00,33.0,31.2,29.67,West,275,6.6,8.8,93,0.00,,,0.00,40.00,VWS V14.01,2013-02-27 22:38:00,
2013-02-27 16:39:00,33.0,31.2,29.66,West,268,11.0,11.0,93,0.00,,,0.00,40.00,VWS V14.01,2013-02-27 22:39:00,
2013-02-27 16:41:00,33.0,31.2,29.67,West,278,5.5,6.6,93,0.00,,,0.00,37.00,VWS V14.01,2013-02-27 22:41:00,
2013-02-27 16:43:00,33.0,31.2,29.67,WSW,253,7.7,9.9,93,0.00,,,0.00,37.00,VWS V14.01,2013-02-27 22:43:00,
2013-02-27 16:44:00,32.9,31.1,29.67,West,265,9.9,9.9,93,0.00,,,0.00,37.00,VWS V14.01,2013-02-27 22:44:00,
2013-02-27 16:45:00,32.9,31.1,29.67,West,275,11.0,11.0,93,0.00,,,0.00,37.00,VWS V14.01,2013-02-27 22:45:00,
2013-02-27 16:47:00,32.9,31.1,29.67,West,266,7.7,9.9,93,0.00,,,0.00,35.00,VWS V14.01,2013-02-27 22:47:00,
2013-02-27 16:49:00,32.9,31.1,29.67,West,278,6.6,6.6,93,0.00,,,0.00,33.00,VWS V14.01,2013-02-27 22:49:00,
2013-02-27 16:50:00,32.9,31.1,29.67,WNW,283,7.7,9.9,93,0.00,,,0.00,32.00,VWS V14.01,2013-02-27 22:50:00,
2013-02-27 16:52:00,32.9,31.1,29.67,WNW,288,4.4,6.6,93,0.00,,,0.00,28.00,VWS V14.01,2013-02-27 22:52:00,
2013-02-27 16:55:00,33.0,31.2,29.67,WNW,295,5.5,6.6,93,0.00,,,0.00,25.00,VWS V14.01,2013-02-27 22:55:00,
2013-02-27 16:57:00,32.9,31.1,29.67,West,273,8.8,9.9,93,0.00,,,0.00,25.00,VWS V14.01,2013-02-27 22:57:00,
2013-02-27 17:00:00,32.9,31.1,29.67,West,278,6.6,13.2,93,0.00,,,0.00,25.00,VWS V14.01,2013-02-27 23:00:00,
2013-02-27 17:02:00,32.8,31.0,29.67,West,277,6.6,7.7,93,0.00,,,0.00,23.00,VWS V14.01,2013-02-27 23:02:00,
2013-02-27 17:05:00,32.7,31.2,29.68,WNW,283,7.7,9.9,94,0.00,,,0.00,23.00,VWS V14.01,2013-02-27 23:05:00,
2013-02-27 17:06:00,32.7,31.2,29.68,West,267,7.7,9.9,94,0.00,,,0.00,23.00,VWS V14.01,2013-02-27 23:06:00,
2013-02-27 17:07:00,32.7,31.2,29.68,West,276,7.7,7.7,94,0.00,,,0.00,21.00,VWS V14.01,2013-02-27 23:07:00,
2013-02-27 17:10:00,32.7,31.2,29.68,WNW,285,8.8,12.1,94,0.00,,,0.00,18.00,VWS V14.01,2013-02-27 23:10:00,
2013-02-27 17:11:00,32.7,31.2,29.68,WSW,247,5.5,9.9,94,0.00,,,0.00,18.00,VWS V14.01,2013-02-27 23:11:00,
2013-02-27 17:13:00,32.7,31.2,29.68,West,266,11.0,11.0,94,0.00,,,0.00,16.00,VWS V14.01,2013-02-27 23:13:00,
2013-02-27 17:15:00,32.6,31.1,29.68,NW,319,11.0,11.0,94,0.00,,,0.00,14.00,VWS V14.01,2013-02-27 23:15:00,
2013-02-27 17:16:00,32.6,31.1,29.68,West,280,9.9,13.2,94,0.00,,,0.00,14.00,VWS V14.01,2013-02-27 23:16:00,
2013-02-27 17:19:00,32.6,31.1,29.68,WNW,296,6.6,6.6,94,0.00,,,0.00,12.00,VWS V14.01,2013-02-27 23:19:00,
2013-02-27 17:20:00,32.6,31.1,29.68,WNW,300,8.8,11.0,94,0.00,,,0.00,12.00,VWS V14.01,2013-02-27 23:20:00,
2013-02-27 17:21:00,32.6,31.3,29.68,West,268,6.6,11.0,95,0.00,,,0.00,12.00,VWS V14.01,2013-02-27 23:21:00,
2013-02-27 17:22:00,32.6,31.3,29.68,WNW,291,6.6,7.7,95,0.00,,,0.00,11.00,VWS V14.01,2013-02-27 23:22:00,
2013-02-27 17:25:00,32.5,31.2,29.68,West,278,7.7,11.0,95,0.00,,,0.00,11.00,VWS V14.01,2013-02-27 23:25:00,
2013-02-27 17:26:00,32.5,31.2,29.68,WSW,251,5.5,7.7,95,0.00,,,0.00,11.00,VWS V14.01,2013-02-27 23:26:00,
2013-02-27 17:27:00,32.5,31.2,29.68,West,268,4.4,8.8,95,0.00,,,0.00,11.00,VWS V14.01,2013-02-27 23:27:00,
2013-02-27 17:31:00,32.5,31.2,29.68,West,281,5.5,9.9,95,0.00,,,0.00,7.00,VWS V14.01,2013-02-27 23:31:00,
2013-02-27 17:32:00,32.5,31.2,29.68,West,268,7.7,13.2,95,0.00,,,0.00,5.00,VWS V14.01,2013-02-27 23:32:00,
2013-02-27 17:33:00,32.5,31.2,29.68,WNW,284,8.8,9.9,95,0.00,,,0.00,5.00,VWS V14.01,2013-02-27 23:33:00,
2013-02-27 17:36:00,32.5,31.2,29.68,West,270,8.8,8.8,95,0.00,,,0.00,0.00,VWS V14.01,2013-02-27 23:36:00,
2013-02-27 17:37:00,32.5,31.2,29.68,West,262,7.7,7.7,95,0.00,,,0.00,0.00,VWS V14.01,2013-02-27 23:37:00,
2013-02-27 17:38:00,32.5,31.2,29.68,West,273,9.9,9.9,95,0.00,,,0.00,0.00,VWS V14.01,2013-02-27 23:38:00,
2013-02-27 17:41:00,32.5,31.2,29.68,West,280,6.6,8.8,95,0.00,,,0.00,0.00,VWS V14.01,2013-02-27 23:41:00,
2013-02-27 17:42:00,32.5,31.2,29.68,WNW,300,5.5,11.0,95,0.00,,,0.00,0.00,VWS V14.01,2013-02-27 23:42:00,
2013-02-27 17:44:00,32.5,31.2,29.68,WSW,248,5.5,9.9,95,0.00,,,0.00,0.00,VWS V14.01,2013-02-27 23:44:00,
2013-02-27 17:46:00,32.5,31.2,29.68,WNW,298,4.4,8.8,95,0.00,,,0.00,0.00,VWS V14.01,2013-02-27 23:46:00,
2013-02-27 17:47:00,32.5,31.2,29.68,West,268,8.8,8.8,95,0.00,,,0.00,0.00,VWS V14.01,2013-02-27 23:47:00,
2013-02-27 17:49:00,32.5,31.2,29.69,West,270,7.7,8.8,95,0.00,,,0.00,0.00,VWS V14.01,2013-02-27 23:49:00,
2013-02-27 17:50:00,32.5,31.2,29.69,WNW,291,7.7,8.8,95,0.00,,,0.00,0.00,VWS V14.01,2013-02-27 23:50:00,
2013-02-27 17:52:00,32.5,31.2,29.69,WNW,289,9.9,9.9,95,0.00,,,0.00,0.00,VWS V14.01,2013-02-27 23:52:00,
2013-02-27 17:54:00,32.5,31.2,29.69,NW,307,9.9,9.9,95,0.00,,,0.00,0.00,VWS V14.01,2013-02-27 23:54:00,
2013-02-27 17:55:00,32.5,31.2,29.69,West,270,6.6,11.0,95,0.00,,,0.00,0.00,VWS V14.01,2013-02-27 23:55:00,
2013-02-27 17:57:00,32.5,31.2,29.69,West,271,8.8,12.1,95,0.00,,,0.00,0.00,VWS V14.01,2013-02-27 23:57:00,
2013-02-27 18:00:00,32.5,31.2,29.69,WNW,303,8.8,9.9,95,0.00,,,0.00,0.00,VWS V14.01,2013-02-28 00:00:00,
2013-02-27 18:02:00,32.5,31.2,29.69,WNW,287,9.9,9.9,95,0.00,,,0.00,0.00,VWS V14.01,2013-02-28 00:02:00,
2013-02-27 18:03:00,32.5,31.5,29.69,WNW,299,6.6,12.1,96,0.00,,,0.00,0.00,VWS V14.01,2013-02-28 00:03:00,
2013-02-27 18:05:00,32.5,31.5,29.69,West,275,9.9,14.3,96,0.00,,,0.00,0.00,VWS V14.01,2013-02-28 00:05:00,
2013-02-27 18:06:00,32.5,31.5,29.69,NW,304,3.3,9.9,96,0.00,,,0.00,0.00,VWS V14.01,2013-02-28 00:06:00,
2013-02-27 18:07:00,32.5,31.5,29.69,WNW,287,9.9,9.9,96,0.00,,,0.00,0.00,VWS V14.01,2013-02-28 00:07:00,
2013-02-27 18:08:00,32.5,31.5,29.69,WNW,286,6.6,11.0,96,0.00,,,0.00,0.00,VWS V14.01,2013-02-28 00:08:00,
2013-02-27 18:11:00,32.5,31.5,29.69,West,275,5.5,7.7,96,0.00,,,0.00,0.00,VWS V14.01,2013-02-28 00:11:00,
2013-02-27 18:12:00,32.5,31.5,29.69,WNW,290,6.6,13.2,96,0.00,,,0.00,0.00,VWS V14.01,2013-02-28 00:12:00,
2013-02-27 18:13:00,32.5,31.5,29.69,West,278,7.7,7.7,96,0.00,,,0.00,0.00,VWS V14.01,2013-02-28 00:13:00,
2013-02-27 18:16:00,32.5,31.5,29.69,NW,315,8.8,12.1,96,0.00,,,0.00,0.00,VWS V14.01,2013-02-28 00:16:00,
2013-02-27 18:17:00,32.5,31.5,29.69,WNW,292,9.9,9.9,96,0.00,,,0.00,0.00,VWS V14.01,2013-02-28 00:17:00,
2013-02-27 18:19:00,32.5,31.5,29.69,WNW,283,13.2,13.2,96,0.00,,,0.00,0.00,VWS V14.01,2013-02-28 00:19:00,
2013-02-27 18:21:00,32.5,31.5,29.69,NW,310,9.9,12.1,96,0.00,,,0.00,0.00,VWS V14.01,2013-02-28 00:21:00,
2013-02-27 18:23:00,32.5,31.5,29.69,NW,312,8.8,12.1,96,0.00,,,0.00,0.00,VWS V14.01,2013-02-28 00:23:00,
2013-02-27 18:24:00,32.5,31.5,29.69,NW,317,8.8,8.8,96,0.00,,,0.00,0.00,VWS V14.01,2013-02-28 00:24:00,
2013-02-27 18:26:00,32.5,31.5,29.69,WNW,295,6.6,11.0,96,0.00,,,0.00,0.00,VWS V14.01,2013-02-28 00:26:00,
2013-02-27 18:28:00,32.5,31.5,29.69,West,277,6.6,8.8,96,0.00,,,0.00,0.00,VWS V14.01,2013-02-28 00:28:00,
2013-02-27 18:29:00,32.5,31.5,29.69,West,272,5.5,9.9,96,0.00,,,0.00,0.00,VWS V14.01,2013-02-28 00:29:00,
2013-02-27 18:30:00,32.5,31.5,29.69,WNW,298,7.7,7.7,96,0.00,,,0.00,0.00,VWS V14.01,2013-02-28 00:30:00,
2013-02-27 18:32:00,32.5,31.5,29.69,WNW,283,7.7,11.0,96,0.00,,,0.00,0.00,VWS V14.01,2013-02-28 00:32:00,
2013-02-27 18:34:00,32.5,31.5,29.69,WNW,301,8.8,8.8,96,0.00,,,0.00,0.00,VWS V14.01,2013-02-28 00:34:00,
2013-02-27 18:35:00,32.5,31.5,29.69,WNW,296,8.8,8.8,96,0.00,,,0.00,0.00,VWS V14.01,2013-02-28 00:35:00,
2013-02-27 18:37:00,32.5,31.5,29.70,West,274,4.4,7.7,96,0.00,,,0.00,0.00,VWS V14.01,2013-02-28 00:37:00,
2013-02-27 18:39:00,32.5,31.5,29.70,West,274,7.7,9.9,96,0.00,,,0.00,0.00,VWS V14.01,2013-02-28 00:39:00,
2013-02-27 18:41:00,32.5,31.5,29.70,WNW,303,11.0,11.0,96,0.00,,,0.00,0.00,VWS V14.01,2013-02-28 00:41:00,
2013-02-27 18:42:00,32.5,31.5,29.70,WNW,284,4.4,8.8,96,0.00,,,0.00,0.00,VWS V14.01,2013-02-28 00:42:00,
2013-02-27 18:44:00,32.5,31.5,29.70,WNW,284,13.2,13.2,96,0.00,,,0.00,0.00,VWS V14.01,2013-02-28 00:44:00,
2013-02-27 18:46:00,32.5,31.5,29.70,WNW,287,5.5,8.8,96,0.00,,,0.00,0.00,VWS V14.01,2013-02-28 00:46:00,
2013-02-27 18:48:00,32.5,31.5,29.70,West,267,8.8,12.1,96,0.00,,,0.00,0.00,VWS V14.01,2013-02-28 00:48:00,
2013-02-27 18:49:00,32.5,31.5,29.70,WNW,302,5.5,8.8,96,0.00,,,0.00,0.00,VWS V14.01,2013-02-28 00:49:00,
2013-02-27 18:51:00,32.5,31.5,29.70,WNW,299,6.6,7.7,96,0.00,,,0.00,0.00,VWS V14.01,2013-02-28 00:51:00,
2013-02-27 18:53:00,32.5,31.5,29.70,West,275,6.6,11.0,96,0.00,,,0.00,0.00,VWS V14.01,2013-02-28 00:53:00,
2013-02-27 18:55:00,32.5,31.5,29.70,West,268,5.5,11.0,96,0.00,,,0.00,0.00,VWS V14.01,2013-02-28 00:55:00,
2013-02-27 18:57:00,32.5,31.5,29.70,WNW,299,6.6,8.8,96,0.00,,,0.00,0.00,VWS V14.01,2013-02-28 00:57:00,
2013-02-27 18:58:00,32.5,31.5,29.70,WNW,297,5.5,9.9,96,0.00,,,0.00,0.00,VWS V14.01,2013-02-28 00:58:00,
2013-02-27 19:00:00,32.5,31.5,29.70,WNW,287,9.9,11.0,96,0.00,,,0.00,0.00,VWS V14.01,2013-02-28 01:00:00,
2013-02-27 19:02:00,32.5,31.5,29.70,WNW,290,6.6,9.9,96,0.00,,,0.00,0.00,VWS V14.01,2013-02-28 01:02:00,
2013-02-27 19:03:00,32.5,31.5,29.70,WNW,287,11.0,11.0,96,0.00,,,0.00,0.00,VWS V14.01,2013-02-28 01:03:00,
2013-02-27 19:04:00,32.5,31.5,29.70,West,278,8.8,11.0,96,0.00,,,0.00,0.00,VWS V14.01,2013-02-28 01:04:00,
2013-02-27 19:06:00,32.5,31.5,29.70,WNW,300,5.5,9.9,96,0.00,,,0.00,0.00,VWS V14.01,2013-02-28 01:06:00,
2013-02-27 19:07:00,32.6,31.6,29.70,WNW,294,9.9,9.9,96,0.00,,,0.00,0.00,VWS V14.01,2013-02-28 01:07:00,
2013-02-27 19:08:00,32.5,31.5,29.70,WNW,294,9.9,9.9,96,0.00,,,0.00,0.00,VWS V14.01,2013-02-28 01:08:00,
2013-02-27 19:09:00,32.5,31.5,29.70,WNW,288,7.7,9.9,96,0.00,,,0.00,0.00,VWS V14.01,2013-02-28 01:09:00,
2013-02-27 19:11:00,32.5,31.5,29.70,West,275,5.5,11.0,96,0.00,,,0.00,0.00,VWS V14.01,2013-02-28 01:11:00,
2013-02-27 19:12:00,32.5,31.5,29.70,WNW,290,6.6,7.7,96,0.00,,,0.00,0.00,VWS V14.01,2013-02-28 01:12:00,
2013-02-27 19:14:00,32.5,31.5,29.70,West,280,7.7,7.7,96,0.00,,,0.00,0.00,VWS V14.01,2013-02-28 01:14:00,
2013-02-27 19:15:00,32.5,31.5,29.70,WNW,289,7.7,8.8,96,0.00,,,0.00,0.00,VWS V14.01,2013-02-28 01:15:00,
2013-02-27 19:17:00,32.5,31.5,29.70,WNW,289,6.6,9.9,96,0.00,,,0.00,0.00,VWS V14.01,2013-02-28 01:17:00,
2013-02-27 19:18:00,32.5,31.5,29.70,NW,305,9.9,9.9,96,0.00,,,0.00,0.00,VWS V14.01,2013-02-28 01:18:00,
2013-02-27 19:19:00,32.5,31.5,29.70,West,278,8.8,8.8,96,0.00,,,0.00,0.00,VWS V14.01,2013-02-28 01:19:00,
2013-02-27 19:20:00,32.5,31.5,29.70,West,281,7.7,11.0,96,0.00,,,0.00,0.00,VWS V14.01,2013-02-28 01:20:00,
2013-02-27 19:23:00,32.5,31.5,29.71,WNW,299,6.6,11.0,96,0.00,,,0.00,0.00,VWS V14.01,2013-02-28 01:23:00,
2013-02-27 19:24:00,32.5,31.5,29.71,NW,309,6.6,8.8,96,0.00,,,0.00,0.00,VWS V14.01,2013-02-28 01:24:00,
2013-02-27 19:26:00,32.5,31.5,29.71,NW,304,6.6,6.6,96,0.00,,,0.00,0.00,VWS V14.01,2013-02-28 01:26:00,
2013-02-27 19:28:00,32.5,31.5,29.71,WNW,291,7.7,8.8,96,0.00,,,0.00,0.00,VWS V14.01,2013-02-28 01:28:00,
2013-02-27 19:29:00,32.5,31.5,29.71,NW,314,8.8,9.9,96,0.00,,,0.00,0.00,VWS V14.01,2013-02-28 01:29:00,
2013-02-27 19:31:00,32.5,31.5,29.71,West,281,8.8,9.9,96,0.00,,,0.00,0.00,VWS V14.01,2013-02-28 01:31:00,
2013-02-27 19:34:00,32.5,31.5,29.71,WNW,299,4.4,9.9,96,0.00,,,0.00,0.00,VWS V14.01,2013-02-28 01:34:00,
2013-02-27 19:35:00,32.5,31.5,29.71,NW,306,5.5,6.6,96,0.00,,,0.00,0.00,VWS V14.01,2013-02-28 01:35:00,
2013-02-27 19:36:00,32.5,31.5,29.71,West,279,7.7,11.0,96,0.00,,,0.00,0.00,VWS V14.01,2013-02-28 01:36:00,
2013-02-27 19:39:00,32.5,31.5,29.71,WNW,303,7.7,7.7,96,0.00,,,0.00,0.00,VWS V14.01,2013-02-28 01:39:00,
2013-02-27 19:40:00,32.5,31.5,29.71,NW,318,7.7,8.8,96,0.00,,,0.00,0.00,VWS V14.01,2013-02-28 01:40:00,
2013-02-27 19:41:00,32.5,31.5,29.71,WNW,285,7.7,11.0,96,0.00,,,0.00,0.00,VWS V14.01,2013-02-28 01:41:00,
2013-02-27 19:42:00,32.5,31.5,29.71,NW,318,6.6,11.0,96,0.00,,,0.00,0.00,VWS V14.01,2013-02-28 01:42:00,
2013-02-27 19:46:00,32.5,31.5,29.71,WNW,297,13.2,13.2,96,0.00,,,0.00,0.00,VWS V14.01,2013-02-28 01:46:00,
2013-02-27 19:47:00,32.5,31.5,29.71,NW,305,7.7,11.0,96,0.00,,,0.00,0.00,VWS V14.01,2013-02-28 01:47:00,
2013-02-27 19:51:00,32.4,31.4,29.71,WNW,292,9.9,14.3,96,0.00,,,0.00,0.00,VWS V14.01,2013-02-28 01:51:00,
2013-02-27 19:52:00,32.4,31.4,29.71,NW,320,6.6,9.9,96,0.00,,,0.00,0.00,VWS V14.01,2013-02-28 01:52:00,
2013-02-27 19:53:00,32.4,31.4,29.71,WNW,295,8.8,8.8,96,0.00,,,0.00,0.00,VWS V14.01,2013-02-28 01:53:00,
2013-02-27 19:57:00,32.4,31.1,29.71,West,278,6.6,8.8,95,0.00,,,0.00,0.00,VWS V14.01,2013-02-28 01:57:00,
2013-02-27 19:58:00,32.4,31.4,29.71,WNW,285,8.8,8.8,96,0.00,,,0.00,0.00,VWS V14.01,2013-02-28 01:58:00,
2013-02-27 20:02:00,32.4,31.1,29.71,WNW,295,11.0,11.0,95,0.00,,,0.00,0.00,VWS V14.01,2013-02-28 02:02:00,
2013-02-27 20:03:00,32.4,31.1,29.71,NW,318,7.7,11.0,95,0.00,,,0.00,0.00,VWS V14.01,2013-02-28 02:03:00,
2013-02-27 20:04:00,32.4,31.1,29.71,NW,305,7.7,7.7,95,0.00,,,0.00,0.00,VWS V14.01,2013-02-28 02:04:00,
2013-02-27 20:07:00,32.4,31.1,29.72,West,278,7.7,7.7,95,0.00,,,0.00,0.00,VWS V14.01,2013-02-28 02:07:00,
2013-02-27 20:08:00,32.4,31.1,29.72,West,272,7.7,9.9,95,0.00,,,0.00,0.00,VWS V14.01,2013-02-28 02:08:00,
2013-02-27 20:09:00,32.4,31.1,29.71,WNW,302,13.2,13.2,95,0.00,,,0.00,0.00,VWS V14.01,2013-02-28 02:09:00,
2013-02-27 20:10:00,32.4,31.1,29.71,WNW,285,4.4,8.8,95,0.00,,,0.00,0.00,VWS V14.01,2013-02-28 02:10:00,
2013-02-27 20:13:00,32.4,31.4,29.71,WNW,295,5.5,9.9,96,0.00,,,0.00,0.00,VWS V14.01,2013-02-28 02:13:00,
2013-02-27 20:14:00,32.4,31.4,29.72,WNW,286,5.5,8.8,96,0.00,,,0.00,0.00,VWS V14.01,2013-02-28 02:14:00,
2013-02-27 20:15:00,32.4,31.4,29.71,WNW,288,8.8,12.1,96,0.00,,,0.00,0.00,VWS V14.01,2013-02-28 02:15:00,
2013-02-27 20:18:00,32.4,31.4,29.71,West,279,6.6,6.6,96,0.00,,,0.00,0.00,VWS V14.01,2013-02-28 02:18:00,
2013-02-27 20:20:00,32.4,31.4,29.71,WNW,296,6.6,9.9,96,0.00,,,0.00,0.00,VWS V14.01,2013-02-28 02:20:00,
2013-02-27 20:21:00,32.4,31.4,29.71,NW,308,7.7,9.9,96,0.00,,,0.00,0.00,VWS V14.01,2013-02-28 02:21:00,
2013-02-27 20:23:00,32.4,31.4,29.72,WNW,301,11.0,12.1,96,0.00,,,0.00,0.00,VWS V14.01,2013-02-28 02:23:00,
2013-02-27 20:24:00,32.4,31.4,29.72,WNW,292,6.6,9.9,96,0.00,,,0.00,0.00,VWS V14.01,2013-02-28 02:24:00,
2013-02-27 20:26:00,32.4,31.4,29.72,NW,307,6.6,12.1,96,0.00,,,0.00,0.00,VWS V14.01,2013-02-28 02:26:00,
2013-02-27 20:29:00,32.4,31.4,29.72,WNW,288,6.6,9.9,96,0.00,,,0.00,0.00,VWS V14.01,2013-02-28 02:29:00,
2013-02-27 20:30:00,32.4,31.4,29.72,West,280,7.7,9.9,96,0.00,,,0.00,0.00,VWS V14.01,2013-02-28 02:30:00,
2013-02-27 20:31:00,32.4,31.4,29.72,WNW,289,8.8,8.8,96,0.00,,,0.00,0.00,VWS V14.01,2013-02-28 02:31:00,
2013-02-27 20:34:00,32.4,31.4,29.72,West,281,11.0,11.0,96,0.00,,,0.00,0.00,VWS V14.01,2013-02-28 02:34:00,
2013-02-27 20:35:00,32.4,31.4,29.72,NW,316,6.6,11.0,96,0.00,,,0.00,0.00,VWS V14.01,2013-02-28 02:35:00,
2013-02-27 20:36:00,32.5,31.5,29.72,WNW,289,5.5,9.9,96,0.00,,,0.00,0.00,VWS V14.01,2013-02-28 02:36:00,
2013-02-27 20:37:00,32.4,31.4,29.72,WNW,301,6.6,9.9,96,0.00,,,0.00,0.00,VWS V14.01,2013-02-28 02:37:00,
2013-02-27 20:39:00,32.4,31.4,29.72,NW,316,6.6,12.1,96,0.00,,,0.00,0.00,VWS V14.01,2013-02-28 02:39:00,
2013-02-27 20:41:00,32.5,31.5,29.72,NW,311,6.6,11.0,96,0.00,,,0.00,0.00,VWS V14.01,2013-02-28 02:41:00,
2013-02-27 20:42:00,32.5,31.5,29.72,NW,308,6.6,6.6,96,0.00,,,0.00,0.00,VWS V14.01,2013-02-28 02:42:00,
2013-02-27 20:44:00,32.4,31.4,29.72,West,278,9.9,12.1,96,0.00,,,0.00,0.00,VWS V14.01,2013-02-28 02:44:00,
2013-02-27 20:46:00,32.5,31.5,29.72,West,278,7.7,11.0,96,0.00,,,0.00,0.00,VWS V14.01,2013-02-28 02:46:00,
2013-02-27 20:47:00,32.5,31.5,29.72,WNW,303,5.5,11.0,96,0.00,,,0.00,0.00,VWS V14.01,2013-02-28 02:47:00,
2013-02-27 20:48:00,32.5,31.5,29.72,NW,305,7.7,9.9,96,0.00,,,0.00,0.00,VWS V14.01,2013-02-28 02:48:00,
2013-02-27 20:50:00,32.5,31.5,29.72,WNW,289,6.6,11.0,96,0.00,,,0.00,0.00,VWS V14.01,2013-02-28 02:50:00,
2013-02-27 20:51:00,32.5,31.5,29.72,WNW,285,6.6,8.8,96,0.00,,,0.00,0.00,VWS V14.01,2013-02-28 02:51:00,
2013-02-27 20:52:00,32.5,31.5,29.72,WNW,303,6.6,8.8,96,0.00,,,0.00,0.00,VWS V14.01,2013-02-28 02:52:00,
2013-02-27 20:54:00,32.5,31.5,29.72,WNW,293,6.6,11.0,96,0.00,,,0.00,0.00,VWS V14.01,2013-02-28 02:54:00,
2013-02-27 20:55:00,32.5,31.5,29.72,NW,319,8.8,11.0,96,0.00,,,0.00,0.00,VWS V14.01,2013-02-28 02:55:00,
2013-02-27 20:56:00,32.5,31.5,29.72,West,276,6.6,7.7,96,0.00,,,0.00,0.00,VWS V14.01,2013-02-28 02:56:00,
2013-02-27 20:58:00,32.5,31.5,29.72,WNW,303,8.8,8.8,96,0.00,,,0.00,0.00,VWS V14.01,2013-02-28 02:58:00,
2013-02-27 20:59:00,32.5,31.5,29.72,WNW,303,11.0,13.2,96,0.00,,,0.00,0.00,VWS V14.01,2013-02-28 02:59:00,
2013-02-27 21:00:00,32.5,31.5,29.72,West,281,6.6,11.0,96,0.00,,,0.00,0.00,VWS V14.01,2013-02-28 03:00:00,
2013-02-27 21:02:00,32.5,31.5,29.72,WNW,285,4.4,8.8,96,0.00,,,0.00,0.00,VWS V14.01,2013-02-28 03:02:00,
2013-02-27 21:03:00,32.5,31.5,29.72,WNW,293,5.5,9.9,96,0.00,,,0.00,0.00,VWS V14.01,2013-02-28 03:03:00,
2013-02-27 21:05:00,32.5,31.5,29.72,WNW,298,8.8,8.8,96,0.00,,,0.00,0.00,VWS V14.01,2013-02-28 03:05:00,
2013-02-27 21:07:00,32.5,31.2,29.72,NW,320,5.5,6.6,95,0.00,,,0.00,0.00,VWS V14.01,2013-02-28 03:07:00,
2013-02-27 21:08:00,32.5,31.2,29.72,NW,326,9.9,9.9,95,0.00,,,0.00,0.00,VWS V14.01,2013-02-28 03:08:00,
2013-02-27 21:10:00,32.5,31.2,29.72,WNW,287,6.6,8.8,95,0.00,,,0.00,0.00,VWS V14.01,2013-02-28 03:10:00,
2013-02-27 21:12:00,32.5,31.2,29.72,West,277,11.0,11.0,95,0.00,,,0.00,0.00,VWS V14.01,2013-02-28 03:12:00,
2013-02-27 21:13:00,32.5,31.2,29.72,NW,305,8.8,11.0,95,0.00,,,0.00,0.00,VWS V14.01,2013-02-28 03:13:00,
2013-02-27 21:15:00,32.5,31.2,29.72,NW,304,9.9,13.2,95,0.00,,,0.00,0.00,VWS V14.01,2013-02-28 03:15:00,
2013-02-27 21:18:00,32.6,31.3,29.72,WNW,300,11.0,11.0,95,0.00,,,0.00,0.00,VWS V14.01,2013-02-28 03:18:00,
2013-02-27 21:20:00,32.5,31.2,29.72,West,278,9.9,9.9,95,0.00,,,0.00,0.00,VWS V14.01,2013-02-28 03:20:00,
2013-02-27 21:21:00,32.5,31.2,29.73,WNW,292,9.9,13.2,95,0.00,,,0.00,0.00,VWS V14.01,2013-02-28 03:21:00,
2013-02-27 21:23:00,32.5,31.2,29.72,WNW,286,7.7,8.8,95,0.00,,,0.00,0.00,VWS V14.01,2013-02-28 03:23:00,
2013-02-27 21:24:00,32.6,31.3,29.72,WNW,282,11.0,11.0,95,0.00,,,0.00,0.00,VWS V14.01,2013-02-28 03:24:00,
2013-02-27 21:25:00,32.6,31.3,29.73,WNW,296,8.8,12.1,95,0.00,,,0.00,0.00,VWS V14.01,2013-02-28 03:25:00,
2013-02-27 21:26:00,32.6,31.3,29.73,WNW,291,12.1,14.3,95,0.00,,,0.00,0.00,VWS V14.01,2013-02-28 03:26:00,
2013-02-27 21:28:00,32.5,31.2,29.73,WNW,283,5.5,7.7,95,0.00,,,0.00,0.00,VWS V14.01,2013-02-28 03:28:00,
2013-02-27 21:30:00,32.5,31.2,29.73,WNW,301,11.0,11.0,95,0.00,,,0.00,0.00,VWS V14.01,2013-02-28 03:30:00,
2013-02-27 21:31:00,32.5,31.2,29.73,West,281,7.7,9.9,95,0.00,,,0.00,0.00,VWS V14.01,2013-02-28 03:31:00,
2013-02-27 21:33:00,32.5,31.2,29.73,WNW,287,11.0,11.0,95,0.00,,,0.00,0.00,VWS V14.01,2013-02-28 03:33:00,
2013-02-27 21:35:00,32.5,31.2,29.73,NW,305,7.7,11.0,95,0.00,,,0.00,0.00,VWS V14.01,2013-02-28 03:35:00,
2013-02-27 21:37:00,32.5,31.2,29.73,NW,309,9.9,11.0,95,0.00,,,0.00,0.00,VWS V14.01,2013-02-28 03:37:00,
2013-02-27 21:39:00,32.5,31.2,29.73,WNW,295,7.7,9.9,95,0.00,,,0.00,0.00,VWS V14.01,2013-02-28 03:39:00,
2013-02-27 21:40:00,32.5,31.2,29.73,WNW,283,4.4,9.9,95,0.00,,,0.00,0.00,VWS V14.01,2013-02-28 03:40:00,
2013-02-27 21:41:00,32.5,31.2,29.73,NW,304,5.5,6.6,95,0.00,,,0.00,0.00,VWS V14.01,2013-02-28 03:41:00,
2013-02-27 21:42:00,32.5,31.2,29.73,WNW,303,7.7,11.0,95,0.00,,,0.00,0.00,VWS V14.01,2013-02-28 03:42:00,
2013-02-27 21:44:00,32.5,31.2,29.73,WNW,294,7.7,11.0,95,0.00,,,0.00,0.00,VWS V14.01,2013-02-28 03:44:00,
2013-02-27 21:45:00,32.5,31.2,29.73,West,278,7.7,7.7,95,0.00,,,0.00,0.00,VWS V14.01,2013-02-28 03:45:00,
2013-02-27 21:47:00,32.4,31.1,29.73,WNW,302,9.9,9.9,95,0.00,,,0.00,0.00,VWS V14.01,2013-02-28 03:47:00,
2013-02-27 21:49:00,32.4,31.4,29.73,WNW,292,11.0,11.0,96,0.00,,,0.00,0.00,VWS V14.01,2013-02-28 03:49:00,
2013-02-27 21:51:00,32.4,31.1,29.73,WNW,283,7.7,12.1,95,0.00,,,0.00,0.00,VWS V14.01,2013-02-28 03:51:00,
2013-02-27 21:52:00,32.4,31.1,29.73,WNW,298,8.8,12.1,95,0.00,,,0.00,0.00,VWS V14.01,2013-02-28 03:52:00,
2013-02-27 21:53:00,32.4,31.1,29.73,NW,305,8.8,8.8,95,0.00,,,0.00,0.00,VWS V14.01,2013-02-28 03:53:00,
2013-02-27 21:54:00,32.4,31.1,29.73,NNW,329,13.2,13.2,95,0.00,,,0.00,0.00,VWS V14.01,2013-02-28 03:54:00,
2013-02-27 21:57:00,32.4,31.1,29.73,WNW,286,8.8,13.2,95,0.00,,,0.00,0.00,VWS V14.01,2013-02-28 03:57:00,
2013-02-27 21:58:00,32.4,31.1,29.73,WNW,295,7.7,8.8,95,0.00,,,0.00,0.00,VWS V14.01,2013-02-28 03:58:00,
2013-02-27 22:00:00,32.4,31.1,29.73,WNW,289,8.8,11.0,95,0.00,,,0.00,0.00,VWS V14.01,2013-02-28 04:00:00,
2013-02-27 22:02:00,32.3,31.0,29.73,WNW,289,12.1,12.1,95,0.00,,,0.00,0.00,VWS V14.01,2013-02-28 04:02:00,
2013-02-27 22:03:00,32.3,31.0,29.73,WNW,287,9.9,9.9,95,0.00,,,0.00,0.00,VWS V14.01,2013-02-28 04:03:00,
2013-02-27 22:05:00,32.3,31.0,29.73,WNW,301,6.6,7.7,95,0.00,,,0.00,0.00,VWS V14.01,2013-02-28 04:05:00,
2013-02-27 22:08:00,32.2,30.9,29.73,WNW,296,8.8,9.9,95,0.00,,,0.00,0.00,VWS V14.01,2013-02-28 04:08:00,
2013-02-27 22:09:00,32.2,30.9,29.73,NW,314,9.9,12.1,95,0.00,,,0.00,0.00,VWS V14.01,2013-02-28 04:09:00,
2013-02-27 22:12:00,32.2,31.2,29.73,NW,318,5.5,12.1,96,0.00,,,0.00,0.00,VWS V14.01,2013-02-28 04:12:00,
2013-02-27 22:13:00,32.2,30.9,29.73,WNW,293,4.4,6.6,95,0.00,,,0.00,0.00,VWS V14.01,2013-02-28 04:13:00,
2013-02-27 22:14:00,32.2,31.2,29.73,WNW,295,6.6,6.6,96,0.00,,,0.00,0.00,VWS V14.01,2013-02-28 04:14:00,
2013-02-27 22:17:00,32.2,31.2,29.73,WNW,284,6.6,9.9,96,0.00,,,0.00,0.00,VWS V14.01,2013-02-28 04:17:00,
2013-02-27 22:19:00,32.2,31.2,29.73,WNW,294,8.8,9.9,96,0.00,,,0.00,0.00,VWS V14.01,2013-02-28 04:19:00,
2013-02-27 22:23:00,32.2,31.2,29.73,NW,306,6.6,8.8,96,0.00,,,0.00,0.00,VWS V14.01,2013-02-28 04:23:00,
2013-02-27 22:24:00,32.2,31.2,29.73,NW,326,8.8,11.0,96,0.00,,,0.00,0.00,VWS V14.01,2013-02-28 04:24:00,
2013-02-27 22:28:00,32.2,31.2,29.73,NW,324,5.5,9.9,96,0.00,,,0.00,0.00,VWS V14.01,2013-02-28 04:28:00,
2013-02-27 22:29:00,32.2,31.2,29.73,NW,310,7.7,9.9,96,0.00,,,0.00,0.00,VWS V14.01,2013-02-28 04:29:00,
2013-02-27 22:30:00,32.2,31.2,29.73,NW,314,6.6,9.9,96,0.00,,,0.00,0.00,VWS V14.01,2013-02-28 04:30:00,
2013-02-27 22:34:00,32.2,31.2,29.73,NW,326,8.8,11.0,96,0.00,,,0.00,0.00,VWS V14.01,2013-02-28 04:34:00,
2013-02-27 22:35:00,32.3,31.3,29.73,NW,310,8.8,8.8,96,0.00,,,0.00,0.00,VWS V14.01,2013-02-28 04:35:00,
2013-02-27 22:39:00,32.3,31.3,29.73,NW,308,9.9,9.9,96,0.00,,,0.00,0.00,VWS V14.01,2013-02-28 04:39:00,
2013-02-27 22:40:00,32.2,31.2,29.73,NW,305,7.7,9.9,96,0.00,,,0.00,0.00,VWS V14.01,2013-02-28 04:40:00,
2013-02-27 22:45:00,32.2,31.2,29.73,NW,313,9.9,13.2,96,0.00,,,0.00,0.00,VWS V14.01,2013-02-28 04:45:00,
2013-02-27 22:46:00,32.3,31.3,29.73,NW,314,8.8,8.8,96,0.00,,,0.00,0.00,VWS V14.01,2013-02-28 04:46:00,
2013-02-27 22:50:00,32.3,31.3,29.73,NW,321,8.8,8.8,96,0.00,,,0.00,0.00,VWS V14.01,2013-02-28 04:50:00,
2013-02-27 22:51:00,32.3,31.3,29.73,NW,318,8.8,12.1,96,0.00,,,0.00,0.00,VWS V14.01,2013-02-28 04:51:00,
2013-02-27 22:55:00,32.3,31.0,29.73,NW,315,3.3,4.4,95,0.00,,,0.00,0.00,VWS V14.01,2013-02-28 04:55:00,
2013-02-27 22:56:00,32.3,31.0,29.73,NW,312,7.7,7.7,95,0.00,,,0.00,0.00,VWS V14.01,2013-02-28 04:56:00,
2013-02-27 22:57:00,32.3,31.0,29.73,NW,318,6.6,6.6,95,0.00,,,0.00,0.00,VWS V14.01,2013-02-28 04:57:00,
2013-02-27 23:00:00,32.3,31.0,29.73,NW,323,6.6,8.8,95,0.00,,,0.00,0.00,VWS V14.01,2013-02-28 05:00:00,
2013-02-27 23:01:00,32.3,31.0,29.73,WNW,299,7.7,7.7,95,0.00,,,0.00,0.00,VWS V14.01,2013-02-28 05:01:00,
2013-02-27 23:05:00,32.4,31.1,29.73,NW,310,6.6,9.9,95,0.00,,,0.00,0.00,VWS V14.01,2013-02-28 05:05:00,
2013-02-27 23:06:00,32.4,31.1,29.74,WNW,299,7.7,12.1,95,0.00,,,0.00,0.00,VWS V14.01,2013-02-28 05:06:00,
2013-02-27 23:10:00,32.4,31.1,29.73,NW,309,8.8,8.8,95,0.00,,,0.00,0.00,VWS V14.01,2013-02-28 05:10:00,
2013-02-27 23:11:00,32.4,31.1,29.73,NW,311,8.8,8.8,95,0.00,,,0.00,0.00,VWS V14.01,2013-02-28 05:11:00,
2013-02-27 23:12:00,32.4,31.1,29.73,WNW,296,6.6,6.6,95,0.00,,,0.00,0.00,VWS V14.01,2013-02-28 05:12:00,
2013-02-27 23:16:00,32.5,31.2,29.73,NW,313,6.6,8.8,95,0.00,,,0.00,0.00,VWS V14.01,2013-02-28 05:16:00,
2013-02-27 23:17:00,32.5,31.2,29.74,NW,314,6.6,6.6,95,0.00,,,0.00,0.00,VWS V14.01,2013-02-28 05:17:00,
2013-02-27 23:19:00,32.5,31.2,29.73,WNW,301,8.8,11.0,95,0.00,,,0.00,0.00,VWS V14.01,2013-02-28 05:19:00,
2013-02-27 23:21:00,32.5,31.2,29.73,NNW,330,9.9,9.9,95,0.00,,,0.00,0.00,VWS V14.01,2013-02-28 05:21:00,
2013-02-27 23:22:00,32.5,31.2,29.73,NW,322,7.7,9.9,95,0.00,,,0.00,0.00,VWS V14.01,2013-02-28 05:22:00,
2013-02-27 23:23:00,32.5,31.2,29.73,NW,318,8.8,12.1,95,0.00,,,0.00,0.00,VWS V14.01,2013-02-28 05:23:00,
2013-02-27 23:25:00,32.6,31.3,29.73,WNW,291,9.9,9.9,95,0.00,,,0.00,0.00,VWS V14.01,2013-02-28 05:25:00,
2013-02-27 23:27:00,32.6,31.3,29.73,NNW,336,3.3,8.8,95,0.00,,,0.00,0.00,VWS V14.01,2013-02-28 05:27:00,
2013-02-27 23:29:00,32.6,31.3,29.73,NW,317,5.5,9.9,95,0.00,,,0.00,0.00,VWS V14.01,2013-02-28 05:29:00,
2013-02-27 23:31:00,32.6,31.3,29.73,WNW,302,7.7,9.9,95,0.00,,,0.00,0.00,VWS V14.01,2013-02-28 05:31:00,
2013-02-27 23:32:00,32.6,31.3,29.74,NW,324,6.6,12.1,95,0.00,,,0.00,0.00,VWS V14.01,2013-02-28 05:32:00,
2013-02-27 23:34:00,32.6,31.3,29.74,NW,315,6.6,11.0,95,0.00,,,0.00,0.00,VWS V14.01,2013-02-28 05:34:00,
2013-02-27 23:36:00,32.6,31.3,29.74,NW,320,6.6,6.6,95,0.00,,,0.00,0.00,VWS V14.01,2013-02-28 05:36:00,
2013-02-27 23:37:00,32.6,31.1,29.74,WNW,299,7.7,9.9,94,0.00,,,0.00,0.00,VWS V14.01,2013-02-28 05:37:00,
2013-02-27 23:38:00,32.6,31.1,29.74,NNW,337,8.8,9.9,94,0.00,,,0.00,0.00,VWS V14.01,2013-02-28 05:38:00,
2013-02-27 23:39:00,32.7,31.2,29.74,NW,304,5.5,5.5,94,0.00,,,0.00,0.00,VWS V14.01,2013-02-28 05:39:00,
2013-02-27 23:41:00,32.6,31.1,29.74,NW,320,7.7,7.7,94,0.00,,,0.00,0.00,VWS V14.01,2013-02-28 05:41:00,
2013-02-27 23:43:00,32.6,31.1,29.74,NW,309,8.8,8.8,94,0.00,,,0.00,0.00,VWS V14.01,2013-02-28 05:43:00,
2013-02-27 23:44:00,32.7,31.2,29.74,WNW,292,8.8,11.0,94,0.00,,,0.00,0.00,VWS V14.01,2013-02-28 05:44:00,
2013-02-27 23:47:00,32.7,31.2,29.74,NW,318,6.6,12.1,94,0.00,,,0.00,0.00,VWS V14.01,2013-02-28 05:47:00,
2013-02-27 23:48:00,32.7,31.2,29.74,NNW,343,7.7,12.1,94,0.00,,,0.00,0.00,VWS V14.01,2013-02-28 05:48:00,
2013-02-27 23:49:00,32.7,31.2,29.74,NW,320,8.8,15.4,94,0.00,,,0.00,0.00,VWS V14.01,2013-02-28 05:49:00,
2013-02-27 23:50:00,32.7,31.2,29.74,NW,310,8.8,8.8,94,0.00,,,0.00,0.00,VWS V14.01,2013-02-28 05:50:00,
2013-02-27 23:52:00,32.7,31.2,29.74,NW,322,8.8,9.9,94,0.00,,,0.00,0.00,VWS V14.01,2013-02-28 05:52:00,
2013-02-27 23:53:00,32.7,31.2,29.74,NW,316,8.8,11.0,94,0.00,,,0.00,0.00,VWS V14.01,2013-02-28 05:53:00,
2013-02-27 23:54:00,32.8,31.3,29.74,WNW,303,5.5,8.8,94,0.00,,,0.00,0.00,VWS V14.01,2013-02-28 05:54:00,
2013-02-27 23:55:00,32.8,31.3,29.74,NW,318,9.9,14.3,94,0.00,,,0.00,0.00,VWS V14.01,2013-02-28 05:55:00,
2013-02-27 23:57:00,32.8,31.3,29.74,NNW,330,6.6,12.1,94,0.00,,,0.00,0.00,VWS V14.01,2013-02-28 05:57:00,
2013-02-27 23:58:00,32.8,31.3,29.74,NNW,327,8.8,11.0,94,0.00,,,0.00,0.00,VWS V14.01,2013-02-28 05:58:00,